Time,TemperatureF,DewpointF,PressureIn,WindDirection,WindDirectionDegrees,WindSpeedMPH,WindSpeedGustMPH,Humidity,HourlyPrecipIn,Conditions,Clouds,dailyrainin,SoftwareType,DateUTC
2013-10-18 00:00:00,56.5,51.0,29.85,NW,315,0.0,1.1,82,0.00,,,0.00,WUHU216HW,2013-10-18 04:00:00,
2013-10-18 00:01:00,56.3,50.9,29.85,NW,315,0.0,1.1,82,0.00,,,0.00,WUHU216HW,2013-10-18 04:01:00,
2013-10-18 00:02:00,56.3,50.9,29.85,NW,315,0.0,1.1,82,0.00,,,0.00,WUHU216HW,2013-10-18 04:02:00,
2013-10-18 00:05:00,56.2,50.7,29.85,NW,315,0.0,1.1,82,0.00,,,0.00,WUHU216HW,2013-10-18 04:05:00,
2013-10-18 00:06:00,56.0,50.9,29.85,NW,315,0.0,1.1,83,0.00,,,0.00,WUHU216HW,2013-10-18 04:06:00,
2013-10-18 00:07:00,55.8,50.7,29.85,NW,315,0.0,1.1,83,0.00,,,0.00,WUHU216HW,2013-10-18 04:07:00,
2013-10-18 00:09:00,55.8,50.7,29.85,NW,315,0.0,0.0,83,0.00,,,0.00,WUHU216HW,2013-10-18 04:09:00,
2013-10-18 00:10:00,55.6,50.5,29.85,NW,315,0.0,0.0,83,0.00,,,0.00,WUHU216HW,2013-10-18 04:10:00,
2013-10-18 00:11:00,55.6,50.5,29.85,NW,315,0.0,0.0,83,0.00,,,0.00,WUHU216HW,2013-10-18 04:11:00,
2013-10-18 00:12:00,55.4,50.3,29.85,NW,315,0.0,0.0,83,0.00,,,0.00,WUHU216HW,2013-10-18 04:12:00,
2013-10-18 00:13:00,55.4,50.3,29.85,NW,315,0.0,0.0,83,0.00,,,0.00,WUHU216HW,2013-10-18 04:13:00,
2013-10-18 00:15:00,55.3,50.1,29.85,NW,315,0.0,0.0,83,0.00,,,0.00,WUHU216HW,2013-10-18 04:15:00,
2013-10-18 00:16:00,55.3,50.1,29.85,NW,315,0.0,0.0,83,0.00,,,0.00,WUHU216HW,2013-10-18 04:16:00,
2013-10-18 00:17:00,55.3,50.1,29.85,NW,315,0.0,0.0,83,0.00,,,0.00,WUHU216HW,2013-10-18 04:17:00,
2013-10-18 00:18:00,55.1,50.0,29.85,NW,315,0.0,0.0,83,0.00,,,0.00,WUHU216HW,2013-10-18 04:18:00,
2013-10-18 00:20:00,55.1,50.3,29.85,NNW,338,0.0,0.0,84,0.00,,,0.00,WUHU216HW,2013-10-18 04:20:00,
2013-10-18 00:21:00,55.1,50.3,29.85,NNW,338,0.0,0.0,84,0.00,,,0.00,WUHU216HW,2013-10-18 04:21:00,
2013-10-18 00:22:00,55.1,50.3,29.85,NNW,338,0.0,0.0,84,0.00,,,0.00,WUHU216HW,2013-10-18 04:22:00,
2013-10-18 00:24:00,54.9,50.1,29.85,NNW,338,0.0,0.0,84,0.00,,,0.00,WUHU216HW,2013-10-18 04:24:00,
2013-10-18 00:26:00,54.9,50.1,29.85,NNW,338,0.0,0.0,84,0.00,,,0.00,WUHU216HW,2013-10-18 04:26:00,
2013-10-18 00:27:00,54.7,50.0,29.85,NNW,338,0.0,0.0,84,0.00,,,0.00,WUHU216HW,2013-10-18 04:27:00,
2013-10-18 00:29:00,54.7,50.2,29.85,NNW,338,0.0,0.0,85,0.00,,,0.00,WUHU216HW,2013-10-18 04:29:00,
2013-10-18 00:31:00,54.5,50.1,29.85,NNW,338,0.0,0.0,85,0.00,,,0.00,WUHU216HW,2013-10-18 04:31:00,
2013-10-18 00:32:00,54.4,50.0,29.85,NNW,338,0.0,0.0,85,0.00,,,0.00,WUHU216HW,2013-10-18 04:32:00,
2013-10-18 00:33:00,54.4,50.0,29.85,NNW,338,0.0,0.0,85,0.00,,,0.00,WUHU216HW,2013-10-18 04:33:00,
2013-10-18 00:34:00,54.4,50.0,29.85,NNW,338,0.0,0.0,85,0.00,,,0.00,WUHU216HW,2013-10-18 04:34:00,
2013-10-18 00:35:00,54.4,50.0,29.85,NNW,338,0.0,0.0,85,0.00,,,0.00,WUHU216HW,2013-10-18 04:35:00,
2013-10-18 00:36:00,54.2,49.8,29.85,NNW,338,0.0,0.0,85,0.00,,,0.00,WUHU216HW,2013-10-18 04:36:00,
2013-10-18 00:37:00,54.2,49.8,29.85,NNW,338,0.0,0.0,85,0.00,,,0.00,WUHU216HW,2013-10-18 04:37:00,
2013-10-18 00:38:00,54.0,49.6,29.85,NW,315,0.0,0.0,85,0.00,,,0.00,WUHU216HW,2013-10-18 04:38:00,
2013-10-18 00:40:00,53.8,49.4,29.85,NW,315,0.0,0.0,85,0.00,,,0.00,WUHU216HW,2013-10-18 04:40:00,
2013-10-18 00:41:00,53.8,49.4,29.85,NW,315,0.0,0.0,85,0.00,,,0.00,WUHU216HW,2013-10-18 04:41:00,
2013-10-18 00:42:00,53.6,49.2,29.85,NW,315,0.0,0.0,85,0.00,,,0.00,WUHU216HW,2013-10-18 04:42:00,
2013-10-18 00:43:00,53.6,49.5,29.84,NW,315,0.0,0.0,86,0.00,,,0.00,WUHU216HW,2013-10-18 04:43:00,
2013-10-18 00:46:00,53.3,49.1,29.85,NNW,338,0.0,0.0,86,0.00,,,0.00,WUHU216HW,2013-10-18 04:46:00,
2013-10-18 00:47:00,53.3,49.1,29.85,NNW,338,0.0,0.0,86,0.00,,,0.00,WUHU216HW,2013-10-18 04:47:00,
2013-10-18 00:48:00,53.3,49.1,29.84,NNW,338,0.0,0.0,86,0.00,,,0.00,WUHU216HW,2013-10-18 04:48:00,
2013-10-18 00:49:00,53.1,49.0,29.85,NNW,338,0.0,0.0,86,0.00,,,0.00,WUHU216HW,2013-10-18 04:49:00,
2013-10-18 00:51:00,52.9,48.8,29.84,NNW,338,0.0,0.0,86,0.00,,,0.00,WUHU216HW,2013-10-18 04:51:00,
2013-10-18 00:52:00,52.9,48.8,29.84,NNW,338,0.0,0.0,86,0.00,,,0.00,WUHU216HW,2013-10-18 04:52:00,
2013-10-18 00:54:00,52.9,48.8,29.84,NNW,338,0.0,0.0,86,0.00,,,0.00,WUHU216HW,2013-10-18 04:54:00,
2013-10-18 00:56:00,52.7,48.6,29.84,NNW,338,0.0,0.0,86,0.00,,,0.00,WUHU216HW,2013-10-18 04:56:00,
2013-10-18 00:57:00,52.6,48.4,29.84,NNW,338,0.0,0.0,86,0.00,,,0.00,WUHU216HW,2013-10-18 04:57:00,
2013-10-18 00:58:00,52.6,48.4,29.84,NNW,338,0.0,0.0,86,0.00,,,0.00,WUHU216HW,2013-10-18 04:58:00,
2013-10-18 01:00:00,52.4,48.6,29.84,NNW,338,0.0,0.0,87,0.00,,,0.00,WUHU216HW,2013-10-18 05:00:00,
2013-10-18 01:02:00,52.4,48.6,29.84,NNW,338,0.0,0.0,87,0.00,,,0.00,WUHU216HW,2013-10-18 05:02:00,
2013-10-18 01:03:00,52.4,48.6,29.84,NNW,338,0.0,0.0,87,0.00,,,0.00,WUHU216HW,2013-10-18 05:03:00,
2013-10-18 01:05:00,52.4,48.9,29.84,NNW,338,0.0,0.0,88,0.00,,,0.00,WUHU216HW,2013-10-18 05:05:00,
2013-10-18 01:06:00,52.2,48.4,29.84,NNW,338,0.0,0.0,87,0.00,,,0.00,WUHU216HW,2013-10-18 05:06:00,
2013-10-18 01:09:00,52.2,48.7,29.84,NNW,338,0.0,0.0,88,0.00,,,0.00,WUHU216HW,2013-10-18 05:09:00,
2013-10-18 01:10:00,52.2,48.7,29.84,NNW,338,0.0,0.0,88,0.00,,,0.00,WUHU216HW,2013-10-18 05:10:00,
2013-10-18 01:11:00,52.0,48.5,29.84,NNW,338,0.0,0.0,88,0.00,,,0.00,WUHU216HW,2013-10-18 05:11:00,
2013-10-18 01:12:00,52.0,48.5,29.84,NNW,338,0.0,0.0,88,0.00,,,0.00,WUHU216HW,2013-10-18 05:12:00,
2013-10-18 01:15:00,51.8,48.3,29.84,NNW,338,0.0,0.0,88,0.00,,,0.00,WUHU216HW,2013-10-18 05:15:00,
2013-10-18 01:16:00,51.8,48.3,29.84,NNW,338,0.0,0.0,88,0.00,,,0.00,WUHU216HW,2013-10-18 05:16:00,
2013-10-18 01:17:00,51.8,48.3,29.84,NNW,338,0.0,0.0,88,0.00,,,0.00,WUHU216HW,2013-10-18 05:17:00,
2013-10-18 01:18:00,51.7,48.2,29.84,NNW,338,0.0,0.0,88,0.00,,,0.00,WUHU216HW,2013-10-18 05:18:00,
2013-10-18 01:20:00,51.7,48.2,29.84,NNW,338,0.0,0.0,88,0.00,,,0.00,WUHU216HW,2013-10-18 05:20:00,
2013-10-18 01:21:00,51.5,48.0,29.84,NNW,338,0.0,0.0,88,0.00,,,0.00,WUHU216HW,2013-10-18 05:21:00,
2013-10-18 01:23:00,51.5,48.0,29.84,NNW,338,0.0,0.0,88,0.00,,,0.00,WUHU216HW,2013-10-18 05:23:00,
2013-10-18 01:24:00,51.5,48.0,29.84,NNW,338,0.0,0.0,88,0.00,,,0.00,WUHU216HW,2013-10-18 05:24:00,
2013-10-18 01:26:00,51.5,48.0,29.84,NNW,338,0.0,0.0,88,0.00,,,0.00,WUHU216HW,2013-10-18 05:26:00,
2013-10-18 01:28:00,51.3,47.8,29.84,NNW,338,0.0,0.0,88,0.00,,,0.00,WUHU216HW,2013-10-18 05:28:00,
2013-10-18 01:29:00,51.3,47.8,29.84,NNW,338,0.0,0.0,88,0.00,,,0.00,WUHU216HW,2013-10-18 05:29:00,
2013-10-18 01:30:00,51.1,47.6,29.84,NNW,338,0.0,0.0,88,0.00,,,0.00,WUHU216HW,2013-10-18 05:30:00,
2013-10-18 01:32:00,51.1,48.0,29.84,NNW,338,0.0,0.0,89,0.00,,,0.00,WUHU216HW,2013-10-18 05:32:00,
2013-10-18 01:34:00,50.9,47.8,29.84,NNW,338,0.0,0.0,89,0.00,,,0.00,WUHU216HW,2013-10-18 05:34:00,
2013-10-18 01:36:00,50.9,47.8,29.84,NNW,338,0.0,0.0,89,0.00,,,0.00,WUHU216HW,2013-10-18 05:36:00,
2013-10-18 01:37:00,50.8,47.6,29.84,NNW,338,0.0,0.0,89,0.00,,,0.00,WUHU216HW,2013-10-18 05:37:00,
2013-10-18 01:39:00,50.8,47.6,29.84,NNW,338,0.0,0.0,89,0.00,,,0.00,WUHU216HW,2013-10-18 05:39:00,
2013-10-18 01:41:00,50.8,47.6,29.84,NNW,338,0.0,0.0,89,0.00,,,0.00,WUHU216HW,2013-10-18 05:41:00,
2013-10-18 01:42:00,50.8,47.6,29.84,NNW,338,0.0,0.0,89,0.00,,,0.00,WUHU216HW,2013-10-18 05:42:00,
2013-10-18 01:43:00,50.8,47.3,29.84,NNW,338,0.0,0.0,88,0.00,,,0.00,WUHU216HW,2013-10-18 05:43:00,
2013-10-18 01:44:00,50.6,47.1,29.84,NNW,338,0.0,0.0,88,0.00,,,0.00,WUHU216HW,2013-10-18 05:44:00,
2013-10-18 01:45:00,50.6,47.1,29.84,NNW,338,0.0,0.0,88,0.00,,,0.00,WUHU216HW,2013-10-18 05:45:00,
2013-10-18 01:46:00,50.4,46.9,29.84,NNW,338,0.0,0.0,88,0.00,,,0.00,WUHU216HW,2013-10-18 05:46:00,
2013-10-18 01:48:00,50.4,46.9,29.84,NNW,338,0.0,0.0,88,0.00,,,0.00,WUHU216HW,2013-10-18 05:48:00,
2013-10-18 01:49:00,50.4,46.9,29.84,NNW,338,0.0,0.0,88,0.00,,,0.00,WUHU216HW,2013-10-18 05:49:00,
2013-10-18 01:50:00,50.4,46.9,29.84,NNW,338,0.0,0.0,88,0.00,,,0.00,WUHU216HW,2013-10-18 05:50:00,
2013-10-18 01:53:00,50.2,46.7,29.84,NNW,338,0.0,0.0,88,0.00,,,0.00,WUHU216HW,2013-10-18 05:53:00,
2013-10-18 01:55:00,50.2,46.7,29.84,NNW,338,0.0,0.0,88,0.00,,,0.00,WUHU216HW,2013-10-18 05:55:00,
2013-10-18 01:57:00,50.0,46.5,29.84,NNW,338,0.0,0.0,88,0.00,,,0.00,WUHU216HW,2013-10-18 05:57:00,
2013-10-18 01:58:00,50.0,46.5,29.84,NNW,338,0.0,0.0,88,0.00,,,0.00,WUHU216HW,2013-10-18 05:58:00,
2013-10-18 01:59:00,50.0,46.5,29.84,NNW,338,0.0,0.0,88,0.00,,,0.00,WUHU216HW,2013-10-18 05:59:00,
2013-10-18 02:00:00,50.0,46.5,29.84,NNW,338,0.0,0.0,88,0.00,,,0.00,WUHU216HW,2013-10-18 06:00:00,
2013-10-18 02:01:00,49.9,46.4,29.84,NNW,338,0.0,0.0,88,0.00,,,0.00,WUHU216HW,2013-10-18 06:01:00,
2013-10-18 02:02:00,49.9,46.7,29.84,NNW,338,0.0,0.0,89,0.00,,,0.00,WUHU216HW,2013-10-18 06:02:00,
2013-10-18 02:04:00,49.9,46.7,29.84,NNW,338,0.0,0.0,89,0.00,,,0.00,WUHU216HW,2013-10-18 06:04:00,
2013-10-18 02:05:00,49.9,46.7,29.84,NNW,338,0.0,0.0,89,0.00,,,0.00,WUHU216HW,2013-10-18 06:05:00,
2013-10-18 02:06:00,49.9,46.7,29.84,NNW,338,0.0,0.0,89,0.00,,,0.00,WUHU216HW,2013-10-18 06:06:00,
2013-10-18 02:07:00,49.9,46.7,29.84,NNW,338,0.0,0.0,89,0.00,,,0.00,WUHU216HW,2013-10-18 06:07:00,
2013-10-18 02:08:00,49.9,46.7,29.84,NNW,338,0.0,0.0,89,0.00,,,0.00,WUHU216HW,2013-10-18 06:08:00,
2013-10-18 02:10:00,49.9,46.7,29.84,NNW,338,0.0,0.0,89,0.00,,,0.00,WUHU216HW,2013-10-18 06:10:00,
2013-10-18 02:11:00,49.9,46.7,29.84,NNW,338,0.0,0.0,89,0.00,,,0.00,WUHU216HW,2013-10-18 06:11:00,
2013-10-18 02:12:00,49.9,46.7,29.84,NNW,338,0.0,0.0,89,0.00,,,0.00,WUHU216HW,2013-10-18 06:12:00,
2013-10-18 02:14:00,49.7,46.5,29.84,NNW,338,0.0,0.0,89,0.00,,,0.00,WUHU216HW,2013-10-18 06:14:00,
2013-10-18 02:16:00,49.7,46.5,29.84,NNW,338,0.0,0.0,89,0.00,,,0.00,WUHU216HW,2013-10-18 06:16:00,
2013-10-18 02:17:00,49.7,46.5,29.84,NNW,338,0.0,0.0,89,0.00,,,0.00,WUHU216HW,2013-10-18 06:17:00,
2013-10-18 02:19:00,49.7,46.5,29.84,NNW,338,0.0,0.0,89,0.00,,,0.00,WUHU216HW,2013-10-18 06:19:00,
2013-10-18 02:20:00,49.7,46.5,29.84,NNW,338,0.0,0.0,89,0.00,,,0.00,WUHU216HW,2013-10-18 06:20:00,
2013-10-18 02:21:00,49.7,46.5,29.84,NNW,338,0.0,0.0,89,0.00,,,0.00,WUHU216HW,2013-10-18 06:21:00,
2013-10-18 02:23:00,49.5,46.7,29.84,NNW,338,0.0,0.0,90,0.00,,,0.00,WUHU216HW,2013-10-18 06:23:00,
2013-10-18 02:24:00,49.5,46.4,29.84,NNW,338,0.0,0.0,89,0.00,,,0.00,WUHU216HW,2013-10-18 06:24:00,
2013-10-18 02:25:00,49.5,46.4,29.84,NNW,338,0.0,0.0,89,0.00,,,0.00,WUHU216HW,2013-10-18 06:25:00,
2013-10-18 02:26:00,49.5,46.4,29.84,NNW,338,0.0,0.0,89,0.00,,,0.00,WUHU216HW,2013-10-18 06:26:00,
2013-10-18 02:27:00,49.3,46.5,29.84,NNW,338,0.0,0.0,90,0.00,,,0.00,WUHU216HW,2013-10-18 06:27:00,
2013-10-18 02:29:00,49.3,46.5,29.84,NNW,338,0.0,0.0,90,0.00,,,0.00,WUHU216HW,2013-10-18 06:29:00,
2013-10-18 02:30:00,49.3,46.5,29.84,NNW,338,0.0,0.0,90,0.00,,,0.00,WUHU216HW,2013-10-18 06:30:00,
2013-10-18 02:31:00,49.3,46.5,29.84,NNW,338,0.0,0.0,90,0.00,,,0.00,WUHU216HW,2013-10-18 06:31:00,
2013-10-18 02:32:00,49.3,46.5,29.84,NNW,338,0.0,0.0,90,0.00,,,0.00,WUHU216HW,2013-10-18 06:32:00,
2013-10-18 02:33:00,49.5,46.7,29.84,NNW,338,0.0,0.0,90,0.00,,,0.00,WUHU216HW,2013-10-18 06:33:00,
2013-10-18 02:35:00,49.5,46.7,29.84,NNW,338,0.0,0.0,90,0.00,,,0.00,WUHU216HW,2013-10-18 06:35:00,
2013-10-18 02:36:00,49.5,46.7,29.84,NNW,338,0.0,0.0,90,0.00,,,0.00,WUHU216HW,2013-10-18 06:36:00,
2013-10-18 02:38:00,49.3,46.5,29.84,NNW,338,0.0,0.0,90,0.00,,,0.00,WUHU216HW,2013-10-18 06:38:00,
2013-10-18 02:39:00,49.3,46.5,29.84,NNW,338,0.0,0.0,90,0.00,,,0.00,WUHU216HW,2013-10-18 06:39:00,
2013-10-18 02:41:00,49.3,46.5,29.84,NNW,338,0.0,0.0,90,0.00,,,0.00,WUHU216HW,2013-10-18 06:41:00,
2013-10-18 02:42:00,49.3,46.5,29.84,NNW,338,0.0,0.0,90,0.00,,,0.00,WUHU216HW,2013-10-18 06:42:00,
2013-10-18 02:43:00,49.3,46.5,29.84,NNW,338,0.0,0.0,90,0.00,,,0.00,WUHU216HW,2013-10-18 06:43:00,
2013-10-18 02:44:00,49.3,46.5,29.84,NNW,338,0.0,0.0,90,0.00,,,0.00,WUHU216HW,2013-10-18 06:44:00,
2013-10-18 02:46:00,49.3,46.5,29.84,NNW,338,0.0,0.0,90,0.00,,,0.00,WUHU216HW,2013-10-18 06:46:00,
2013-10-18 02:47:00,49.1,46.4,29.84,NNW,338,0.0,0.0,90,0.00,,,0.00,WUHU216HW,2013-10-18 06:47:00,
2013-10-18 02:48:00,49.1,46.4,29.84,NNW,338,0.0,0.0,90,0.00,,,0.00,WUHU216HW,2013-10-18 06:48:00,
2013-10-18 02:49:00,49.1,46.4,29.84,NNW,338,0.0,0.0,90,0.00,,,0.00,WUHU216HW,2013-10-18 06:49:00,
2013-10-18 02:51:00,49.1,46.4,29.84,NNW,338,0.0,0.0,90,0.00,,,0.00,WUHU216HW,2013-10-18 06:51:00,
2013-10-18 02:52:00,49.0,46.2,29.84,NNW,338,0.0,0.0,90,0.00,,,0.00,WUHU216HW,2013-10-18 06:52:00,
2013-10-18 02:53:00,49.0,46.2,29.84,NNW,338,0.0,0.0,90,0.00,,,0.00,WUHU216HW,2013-10-18 06:53:00,
2013-10-18 02:54:00,49.0,46.2,29.84,NNW,338,0.4,0.4,90,0.00,,,0.00,WUHU216HW,2013-10-18 06:54:00,
2013-10-18 02:56:00,49.0,46.2,29.84,NNW,338,0.0,0.4,90,0.00,,,0.00,WUHU216HW,2013-10-18 06:56:00,
2013-10-18 02:58:00,49.0,46.2,29.84,NNW,338,0.0,0.4,90,0.00,,,0.00,WUHU216HW,2013-10-18 06:58:00,
2013-10-18 02:59:00,49.0,46.2,29.84,NNW,338,0.0,0.4,90,0.00,,,0.00,WUHU216HW,2013-10-18 06:59:00,
2013-10-18 03:00:00,49.0,46.2,29.84,NNW,338,0.0,0.4,90,0.00,,,0.00,WUHU216HW,2013-10-18 07:00:00,
2013-10-18 03:02:00,49.0,46.2,29.83,NW,315,0.0,0.4,90,0.00,,,0.00,WUHU216HW,2013-10-18 07:02:00,
2013-10-18 03:03:00,49.0,46.2,29.83,NW,315,0.0,0.4,90,0.00,,,0.00,WUHU216HW,2013-10-18 07:03:00,
2013-10-18 03:05:00,48.8,46.0,29.83,NW,315,0.0,0.0,90,0.00,,,0.00,WUHU216HW,2013-10-18 07:05:00,
2013-10-18 03:07:00,48.8,46.3,29.83,NW,315,0.0,0.0,91,0.00,,,0.00,WUHU216HW,2013-10-18 07:07:00,
2013-10-18 03:08:00,48.8,46.3,29.84,NW,315,0.0,0.0,91,0.00,,,0.00,WUHU216HW,2013-10-18 07:08:00,
2013-10-18 03:09:00,48.8,46.3,29.84,NW,315,0.0,0.0,91,0.00,,,0.00,WUHU216HW,2013-10-18 07:09:00,
2013-10-18 03:11:00,49.0,46.4,29.84,NW,315,0.0,0.0,91,0.00,,,0.00,WUHU216HW,2013-10-18 07:11:00,
2013-10-18 03:12:00,48.8,46.3,29.83,NW,315,0.0,0.0,91,0.00,,,0.00,WUHU216HW,2013-10-18 07:12:00,
2013-10-18 03:13:00,48.8,46.3,29.83,NW,315,0.0,0.0,91,0.00,,,0.00,WUHU216HW,2013-10-18 07:13:00,
2013-10-18 03:14:00,48.8,46.3,29.84,NW,315,0.0,0.0,91,0.00,,,0.00,WUHU216HW,2013-10-18 07:14:00,
2013-10-18 03:16:00,48.8,46.3,29.83,NW,315,0.0,0.0,91,0.00,,,0.00,WUHU216HW,2013-10-18 07:16:00,
2013-10-18 03:17:00,48.6,46.2,29.83,NW,315,0.0,0.0,91,0.00,,,0.00,WUHU216HW,2013-10-18 07:17:00,
2013-10-18 03:18:00,48.6,46.2,29.84,NW,315,0.0,0.0,91,0.00,,,0.00,WUHU216HW,2013-10-18 07:18:00,
2013-10-18 03:20:00,48.6,46.2,29.83,NW,315,0.0,0.0,91,0.00,,,0.00,WUHU216HW,2013-10-18 07:20:00,
2013-10-18 03:21:00,48.6,46.2,29.83,NW,315,0.0,0.0,91,0.00,,,0.00,WUHU216HW,2013-10-18 07:21:00,
2013-10-18 03:22:00,48.6,46.2,29.84,NW,315,0.0,0.0,91,0.00,,,0.00,WUHU216HW,2013-10-18 07:22:00,
2013-10-18 03:23:00,48.6,46.2,29.84,NW,315,0.0,0.0,91,0.00,,,0.00,WUHU216HW,2013-10-18 07:23:00,
2013-10-18 03:24:00,48.6,46.2,29.84,NW,315,0.0,0.0,91,0.00,,,0.00,WUHU216HW,2013-10-18 07:24:00,
2013-10-18 03:25:00,48.6,46.2,29.84,NW,315,0.0,0.0,91,0.00,,,0.00,WUHU216HW,2013-10-18 07:25:00,
2013-10-18 03:27:00,48.4,46.0,29.84,NW,315,0.0,0.0,91,0.00,,,0.00,WUHU216HW,2013-10-18 07:27:00,
2013-10-18 03:28:00,48.4,46.0,29.84,NW,315,0.0,0.0,91,0.00,,,0.00,WUHU216HW,2013-10-18 07:28:00,
2013-10-18 03:30:00,48.4,46.0,29.84,NW,315,0.0,0.0,91,0.00,,,0.00,WUHU216HW,2013-10-18 07:30:00,
2013-10-18 03:31:00,48.4,46.0,29.84,NW,315,0.0,0.0,91,0.00,,,0.00,WUHU216HW,2013-10-18 07:31:00,
2013-10-18 03:33:00,48.2,45.8,29.84,NW,315,0.0,0.0,91,0.00,,,0.00,WUHU216HW,2013-10-18 07:33:00,
2013-10-18 03:34:00,48.2,45.8,29.84,NW,315,0.0,0.0,91,0.00,,,0.00,WUHU216HW,2013-10-18 07:34:00,
2013-10-18 03:36:00,48.2,45.8,29.84,NW,315,0.0,0.0,91,0.00,,,0.00,WUHU216HW,2013-10-18 07:36:00,
2013-10-18 03:37:00,48.2,45.8,29.84,NW,315,0.0,0.0,91,0.00,,,0.00,WUHU216HW,2013-10-18 07:37:00,
2013-10-18 03:38:00,48.1,45.6,29.84,NW,315,0.0,0.0,91,0.00,,,0.00,WUHU216HW,2013-10-18 07:38:00,
2013-10-18 03:39:00,48.1,45.6,29.84,NW,315,0.0,0.0,91,0.00,,,0.00,WUHU216HW,2013-10-18 07:39:00,
2013-10-18 03:40:00,48.1,45.6,29.84,NW,315,0.0,0.0,91,0.00,,,0.00,WUHU216HW,2013-10-18 07:40:00,
2013-10-18 03:41:00,48.1,45.6,29.84,NW,315,0.0,0.0,91,0.00,,,0.00,WUHU216HW,2013-10-18 07:41:00,
2013-10-18 03:43:00,48.1,45.6,29.84,NW,315,0.0,0.0,91,0.00,,,0.00,WUHU216HW,2013-10-18 07:43:00,
2013-10-18 03:44:00,47.9,45.5,29.84,NW,315,0.0,0.0,91,0.00,,,0.00,WUHU216HW,2013-10-18 07:44:00,
2013-10-18 03:46:00,47.9,45.5,29.84,NW,315,0.0,0.0,91,0.00,,,0.00,WUHU216HW,2013-10-18 07:46:00,
2013-10-18 03:47:00,47.9,45.5,29.84,NW,315,0.0,0.0,91,0.00,,,0.00,WUHU216HW,2013-10-18 07:47:00,
2013-10-18 03:49:00,47.9,45.5,29.84,WNW,293,0.0,0.0,91,0.00,,,0.00,WUHU216HW,2013-10-18 07:49:00,
2013-10-18 03:50:00,47.9,45.5,29.84,WNW,293,0.0,0.0,91,0.00,,,0.00,WUHU216HW,2013-10-18 07:50:00,
2013-10-18 03:51:00,47.9,45.5,29.84,WNW,293,0.0,0.0,91,0.00,,,0.00,WUHU216HW,2013-10-18 07:51:00,
2013-10-18 03:52:00,47.9,45.5,29.84,WNW,293,0.0,0.0,91,0.00,,,0.00,WUHU216HW,2013-10-18 07:52:00,
2013-10-18 03:54:00,47.9,45.5,29.84,WNW,293,0.0,0.0,91,0.00,,,0.00,WUHU216HW,2013-10-18 07:54:00,
2013-10-18 03:55:00,47.9,45.5,29.84,WNW,293,0.0,0.0,91,0.00,,,0.00,WUHU216HW,2013-10-18 07:55:00,
2013-10-18 03:56:00,47.9,45.5,29.84,WNW,293,0.0,0.0,91,0.00,,,0.00,WUHU216HW,2013-10-18 07:56:00,
2013-10-18 03:57:00,47.9,45.5,29.84,WNW,293,0.0,0.0,91,0.00,,,0.00,WUHU216HW,2013-10-18 07:57:00,
2013-10-18 03:58:00,47.9,45.5,29.84,WNW,293,0.0,0.0,91,0.00,,,0.00,WUHU216HW,2013-10-18 07:58:00,
2013-10-18 03:59:00,47.7,45.3,29.84,WNW,293,0.0,0.0,91,0.00,,,0.00,WUHU216HW,2013-10-18 07:59:00,
2013-10-18 04:00:00,47.9,45.5,29.84,WNW,293,0.0,0.0,91,0.00,,,0.00,WUHU216HW,2013-10-18 08:00:00,
2013-10-18 04:01:00,47.7,45.3,29.84,WNW,293,0.0,0.0,91,0.00,,,0.00,WUHU216HW,2013-10-18 08:01:00,
2013-10-18 04:02:00,47.7,45.3,29.84,WNW,293,0.0,0.0,91,0.00,,,0.00,WUHU216HW,2013-10-18 08:02:00,
2013-10-18 04:03:00,47.7,45.3,29.84,WNW,293,0.0,0.0,91,0.00,,,0.00,WUHU216HW,2013-10-18 08:03:00,
2013-10-18 04:07:00,47.7,45.3,29.84,NW,315,0.0,0.0,91,0.00,,,0.00,WUHU216HW,2013-10-18 08:07:00,
2013-10-18 04:08:00,47.7,45.3,29.84,NW,315,0.0,0.0,91,0.00,,,0.00,WUHU216HW,2013-10-18 08:08:00,
2013-10-18 04:10:00,47.9,45.5,29.84,NW,315,0.0,0.0,91,0.00,,,0.00,WUHU216HW,2013-10-18 08:10:00,
2013-10-18 04:12:00,47.9,45.5,29.84,NW,315,0.0,0.0,91,0.00,,,0.00,WUHU216HW,2013-10-18 08:12:00,
2013-10-18 04:14:00,47.9,45.5,29.84,NW,315,0.2,0.2,91,0.00,,,0.00,WUHU216HW,2013-10-18 08:14:00,
2013-10-18 04:15:00,48.1,45.6,29.84,WNW,293,0.9,0.9,91,0.00,,,0.00,WUHU216HW,2013-10-18 08:15:00,
2013-10-18 04:16:00,48.1,45.6,29.84,WNW,293,0.9,0.9,91,0.00,,,0.00,WUHU216HW,2013-10-18 08:16:00,
2013-10-18 04:18:00,48.1,45.6,29.84,NNW,338,0.9,0.9,91,0.00,,,0.00,WUHU216HW,2013-10-18 08:18:00,
2013-10-18 04:19:00,48.1,45.6,29.84,WNW,293,0.9,0.9,91,0.00,,,0.00,WUHU216HW,2013-10-18 08:19:00,
2013-10-18 04:20:00,48.2,45.8,29.84,WNW,299,0.6,0.9,91,0.00,,,0.00,WUHU216HW,2013-10-18 08:20:00,
2013-10-18 04:22:00,48.2,45.8,29.84,NNW,338,0.4,0.9,91,0.00,,,0.00,WUHU216HW,2013-10-18 08:22:00,
2013-10-18 04:23:00,48.2,45.8,29.84,NNW,338,0.4,0.9,91,0.00,,,0.00,WUHU216HW,2013-10-18 08:23:00,
2013-10-18 04:24:00,48.2,46.1,29.84,NNW,338,0.4,0.9,92,0.00,,,0.00,WUHU216HW,2013-10-18 08:24:00,
2013-10-18 04:25:00,48.4,46.3,29.84,NNW,338,0.4,0.9,92,0.00,,,0.00,WUHU216HW,2013-10-18 08:25:00,
2013-10-18 04:27:00,48.4,46.3,29.84,NNW,338,0.0,0.9,92,0.00,,,0.00,WUHU216HW,2013-10-18 08:27:00,
2013-10-18 04:28:00,48.4,46.3,29.84,NNW,338,0.0,0.9,92,0.00,,,0.00,WUHU216HW,2013-10-18 08:28:00,
2013-10-18 04:29:00,48.4,46.0,29.84,NNW,338,0.0,0.4,91,0.00,,,0.00,WUHU216HW,2013-10-18 08:29:00,
2013-10-18 04:30:00,48.4,46.0,29.84,NNW,338,0.0,0.4,91,0.00,,,0.00,WUHU216HW,2013-10-18 08:30:00,
2013-10-18 04:31:00,48.4,46.3,29.84,NNW,338,0.0,0.4,92,0.00,,,0.00,WUHU216HW,2013-10-18 08:31:00,
2013-10-18 04:33:00,48.2,45.8,29.84,NNW,338,0.0,0.4,91,0.00,,,0.00,WUHU216HW,2013-10-18 08:33:00,
2013-10-18 04:34:00,48.2,45.8,29.84,NNW,338,0.0,0.4,91,0.00,,,0.00,WUHU216HW,2013-10-18 08:34:00,
2013-10-18 04:36:00,48.1,45.6,29.84,NNW,338,0.0,0.0,91,0.00,,,0.00,WUHU216HW,2013-10-18 08:36:00,
2013-10-18 04:37:00,48.1,45.6,29.84,NNW,338,0.0,0.0,91,0.00,,,0.00,WUHU216HW,2013-10-18 08:37:00,
2013-10-18 04:39:00,47.9,45.5,29.84,NNW,338,0.0,0.0,91,0.00,,,0.00,WUHU216HW,2013-10-18 08:39:00,
2013-10-18 04:41:00,47.9,45.5,29.84,NNW,338,0.0,0.0,91,0.00,,,0.00,WUHU216HW,2013-10-18 08:41:00,
2013-10-18 04:42:00,47.9,45.5,29.84,NW,315,0.0,0.0,91,0.00,,,0.00,WUHU216HW,2013-10-18 08:42:00,
2013-10-18 04:45:00,47.9,45.5,29.84,NNW,338,0.0,0.0,91,0.00,,,0.00,WUHU216HW,2013-10-18 08:45:00,
2013-10-18 04:47:00,47.7,45.5,29.84,NNW,338,0.9,0.9,92,0.00,,,0.00,WUHU216HW,2013-10-18 08:47:00,
2013-10-18 04:48:00,47.7,45.5,29.84,NNW,338,0.9,0.9,92,0.00,,,0.00,WUHU216HW,2013-10-18 08:48:00,
2013-10-18 04:50:00,47.9,45.7,29.84,NNW,338,0.0,0.9,92,0.00,,,0.00,WUHU216HW,2013-10-18 08:50:00,
2013-10-18 04:51:00,47.9,45.7,29.84,NNW,338,0.0,0.9,92,0.00,,,0.00,WUHU216HW,2013-10-18 08:51:00,
2013-10-18 04:53:00,47.9,45.7,29.84,NNW,338,0.0,0.9,92,0.00,,,0.00,WUHU216HW,2013-10-18 08:53:00,
2013-10-18 04:55:00,47.9,45.7,29.84,NNW,338,0.0,0.9,92,0.00,,,0.00,WUHU216HW,2013-10-18 08:55:00,
2013-10-18 04:58:00,47.7,45.5,29.84,NW,315,0.0,0.0,92,0.00,,,0.00,WUHU216HW,2013-10-18 08:58:00,
2013-10-18 04:59:00,47.7,45.5,29.84,NNW,338,0.0,0.0,92,0.00,,,0.00,WUHU216HW,2013-10-18 08:59:00,
2013-10-18 05:01:00,47.7,45.5,29.84,NNW,338,0.0,0.0,92,0.00,,,0.00,WUHU216HW,2013-10-18 09:01:00,
2013-10-18 05:02:00,47.7,45.5,29.84,NNW,338,0.0,0.0,92,0.00,,,0.00,WUHU216HW,2013-10-18 09:02:00,
2013-10-18 05:04:00,47.5,45.4,29.84,NNW,338,0.0,0.0,92,0.00,,,0.00,WUHU216HW,2013-10-18 09:04:00,
2013-10-18 05:05:00,47.5,45.4,29.84,NNW,338,0.0,0.0,92,0.00,,,0.00,WUHU216HW,2013-10-18 09:05:00,
2013-10-18 05:07:00,47.3,45.2,29.84,NNW,338,0.0,0.0,92,0.00,,,0.00,WUHU216HW,2013-10-18 09:07:00,
2013-10-18 05:09:00,47.3,45.2,29.84,NNW,338,0.0,0.0,92,0.00,,,0.00,WUHU216HW,2013-10-18 09:09:00,
2013-10-18 05:10:00,47.2,45.0,29.84,NNW,338,0.0,0.0,92,0.00,,,0.00,WUHU216HW,2013-10-18 09:10:00,
2013-10-18 05:11:00,47.2,45.0,29.84,NNW,338,0.0,0.0,92,0.00,,,0.00,WUHU216HW,2013-10-18 09:11:00,
2013-10-18 05:12:00,47.2,45.0,29.84,NNW,338,0.0,0.0,92,0.00,,,0.00,WUHU216HW,2013-10-18 09:12:00,
2013-10-18 05:13:00,47.2,45.0,29.84,NNW,338,0.0,0.0,92,0.00,,,0.00,WUHU216HW,2013-10-18 09:13:00,
2013-10-18 05:15:00,47.0,44.8,29.84,NNW,338,0.0,0.0,92,0.00,,,0.00,WUHU216HW,2013-10-18 09:15:00,
2013-10-18 05:16:00,47.0,44.8,29.84,NNW,338,0.0,0.0,92,0.00,,,0.00,WUHU216HW,2013-10-18 09:16:00,
2013-10-18 05:17:00,47.0,44.8,29.84,NNW,338,0.0,0.0,92,0.00,,,0.00,WUHU216HW,2013-10-18 09:17:00,
2013-10-18 05:18:00,47.0,44.8,29.85,NNW,338,0.0,0.0,92,0.00,,,0.00,WUHU216HW,2013-10-18 09:18:00,
2013-10-18 05:19:00,47.0,44.8,29.84,NNW,338,0.0,0.0,92,0.00,,,0.00,WUHU216HW,2013-10-18 09:19:00,
2013-10-18 05:21:00,47.0,44.8,29.84,NNW,338,0.0,0.0,92,0.00,,,0.00,WUHU216HW,2013-10-18 09:21:00,
2013-10-18 05:23:00,46.8,44.6,29.85,NNW,338,0.0,0.0,92,0.00,,,0.00,WUHU216HW,2013-10-18 09:23:00,
2013-10-18 05:24:00,46.8,44.6,29.85,NNW,338,0.0,0.0,92,0.00,,,0.00,WUHU216HW,2013-10-18 09:24:00,
2013-10-18 05:25:00,46.8,44.6,29.85,NNW,338,0.0,0.0,92,0.00,,,0.00,WUHU216HW,2013-10-18 09:25:00,
2013-10-18 05:26:00,46.8,44.6,29.85,NNW,338,0.0,0.0,92,0.00,,,0.00,WUHU216HW,2013-10-18 09:26:00,
2013-10-18 05:28:00,46.8,44.6,29.85,NNW,338,0.0,0.0,92,0.00,,,0.00,WUHU216HW,2013-10-18 09:28:00,
2013-10-18 05:29:00,46.8,44.6,29.85,NNW,338,0.0,0.0,92,0.00,,,0.00,WUHU216HW,2013-10-18 09:29:00,
2013-10-18 05:31:00,46.8,44.6,29.85,NNW,338,0.0,0.0,92,0.00,,,0.00,WUHU216HW,2013-10-18 09:31:00,
2013-10-18 05:32:00,46.8,44.6,29.85,NNW,338,0.0,0.0,92,0.00,,,0.00,WUHU216HW,2013-10-18 09:32:00,
2013-10-18 05:34:00,46.8,44.6,29.85,NNW,338,0.0,0.0,92,0.00,,,0.00,WUHU216HW,2013-10-18 09:34:00,
2013-10-18 05:36:00,46.8,44.6,29.85,NNW,338,0.0,0.0,92,0.00,,,0.00,WUHU216HW,2013-10-18 09:36:00,
2013-10-18 05:37:00,46.8,44.6,29.85,NNW,338,0.0,0.0,92,0.00,,,0.00,WUHU216HW,2013-10-18 09:37:00,
2013-10-18 05:39:00,46.8,44.6,29.85,NW,315,0.0,0.0,92,0.00,,,0.00,WUHU216HW,2013-10-18 09:39:00,
2013-10-18 05:41:00,46.6,44.5,29.85,NW,315,0.0,0.0,92,0.00,,,0.00,WUHU216HW,2013-10-18 09:41:00,
2013-10-18 05:42:00,46.6,44.5,29.85,NW,315,0.0,0.0,92,0.00,,,0.00,WUHU216HW,2013-10-18 09:42:00,
2013-10-18 05:43:00,46.6,44.5,29.85,NW,315,0.0,0.0,92,0.00,,,0.00,WUHU216HW,2013-10-18 09:43:00,
2013-10-18 05:44:00,46.6,44.5,29.85,NW,315,0.0,0.0,92,0.00,,,0.00,WUHU216HW,2013-10-18 09:44:00,
2013-10-18 05:46:00,46.6,44.5,29.85,NW,315,0.0,0.0,92,0.00,,,0.00,WUHU216HW,2013-10-18 09:46:00,
2013-10-18 05:47:00,46.4,44.3,29.85,NW,315,0.0,0.0,92,0.00,,,0.00,WUHU216HW,2013-10-18 09:47:00,
2013-10-18 05:50:00,46.4,44.3,29.85,NW,315,0.0,0.0,92,0.00,,,0.00,WUHU216HW,2013-10-18 09:50:00,
2013-10-18 05:51:00,46.4,44.3,29.85,NW,315,0.0,0.0,92,0.00,,,0.00,WUHU216HW,2013-10-18 09:51:00,
2013-10-18 05:52:00,46.4,44.3,29.85,NW,315,0.0,0.0,92,0.00,,,0.00,WUHU216HW,2013-10-18 09:52:00,
2013-10-18 05:53:00,46.4,44.3,29.85,NW,315,0.2,0.2,92,0.00,,,0.00,WUHU216HW,2013-10-18 09:53:00,
2013-10-18 05:55:00,46.6,44.5,29.85,NW,315,0.0,0.4,92,0.00,,,0.00,WUHU216HW,2013-10-18 09:55:00,
2013-10-18 05:56:00,46.6,44.5,29.85,NW,315,0.0,0.4,92,0.00,,,0.00,WUHU216HW,2013-10-18 09:56:00,
2013-10-18 05:57:00,46.6,44.5,29.85,NW,315,0.0,0.4,92,0.00,,,0.00,WUHU216HW,2013-10-18 09:57:00,
2013-10-18 05:58:00,46.6,44.5,29.85,NW,315,0.0,0.4,92,0.00,,,0.00,WUHU216HW,2013-10-18 09:58:00,
2013-10-18 05:59:00,46.6,44.5,29.85,NW,315,0.0,0.4,92,0.00,,,0.00,WUHU216HW,2013-10-18 09:59:00,
2013-10-18 06:00:00,46.6,44.5,29.85,NW,315,0.4,0.4,92,0.00,,,0.00,WUHU216HW,2013-10-18 10:00:00,
2013-10-18 06:01:00,46.6,44.5,29.85,NW,315,0.4,0.4,92,0.00,,,0.00,WUHU216HW,2013-10-18 10:01:00,
2013-10-18 06:03:00,46.6,44.5,29.85,NNW,338,0.0,0.4,92,0.00,,,0.00,WUHU216HW,2013-10-18 10:03:00,
2013-10-18 06:05:00,46.6,44.5,29.85,North,0,0.0,0.4,92,0.00,,,0.00,WUHU216HW,2013-10-18 10:05:00,
2013-10-18 06:06:00,46.6,44.5,29.85,North,0,0.0,0.4,92,0.00,,,0.00,WUHU216HW,2013-10-18 10:06:00,
2013-10-18 06:07:00,46.6,44.5,29.85,North,0,0.0,0.4,92,0.00,,,0.00,WUHU216HW,2013-10-18 10:07:00,
2013-10-18 06:08:00,46.6,44.5,29.85,North,0,0.0,0.4,92,0.00,,,0.00,WUHU216HW,2013-10-18 10:08:00,
2013-10-18 06:09:00,46.6,44.5,29.85,North,0,0.0,0.4,92,0.00,,,0.00,WUHU216HW,2013-10-18 10:09:00,
2013-10-18 06:10:00,46.4,44.3,29.85,North,0,0.0,0.0,92,0.00,,,0.00,WUHU216HW,2013-10-18 10:10:00,
2013-10-18 06:12:00,46.4,44.3,29.85,North,0,0.0,0.0,92,0.00,,,0.00,WUHU216HW,2013-10-18 10:12:00,
2013-10-18 06:14:00,46.4,44.3,29.85,North,0,0.0,0.0,92,0.00,,,0.00,WUHU216HW,2013-10-18 10:14:00,
2013-10-18 06:15:00,46.4,44.3,29.85,North,0,0.0,0.0,92,0.00,,,0.00,WUHU216HW,2013-10-18 10:15:00,
2013-10-18 06:16:00,46.6,44.5,29.85,North,0,0.0,0.0,92,0.00,,,0.00,WUHU216HW,2013-10-18 10:16:00,
2013-10-18 06:17:00,46.6,44.5,29.85,WNW,293,0.0,0.0,92,0.00,,,0.00,WUHU216HW,2013-10-18 10:17:00,
2013-10-18 06:19:00,46.6,44.5,29.85,NW,315,0.9,0.9,92,0.00,,,0.00,WUHU216HW,2013-10-18 10:19:00,
2013-10-18 06:20:00,46.6,44.5,29.85,NW,319,0.6,0.9,92,0.00,,,0.00,WUHU216HW,2013-10-18 10:20:00,
2013-10-18 06:22:00,46.8,44.9,29.85,NW,315,0.4,0.9,93,0.00,,,0.00,WUHU216HW,2013-10-18 10:22:00,
2013-10-18 06:23:00,46.8,44.6,29.85,NW,315,0.4,0.9,92,0.00,,,0.00,WUHU216HW,2013-10-18 10:23:00,
2013-10-18 06:25:00,47.0,44.8,29.86,NW,315,0.0,0.9,92,0.00,,,0.00,WUHU216HW,2013-10-18 10:25:00,
2013-10-18 06:27:00,47.0,44.8,29.86,WNW,293,0.0,0.9,92,0.00,,,0.00,WUHU216HW,2013-10-18 10:27:00,
2013-10-18 06:28:00,47.0,44.8,29.86,NNW,338,0.0,0.9,92,0.00,,,0.00,WUHU216HW,2013-10-18 10:28:00,
2013-10-18 06:30:00,47.0,44.8,29.86,NNW,338,0.2,0.4,92,0.00,,,0.00,WUHU216HW,2013-10-18 10:30:00,
2013-10-18 06:31:00,47.0,44.8,29.86,NNW,338,0.2,0.4,92,0.00,,,0.00,WUHU216HW,2013-10-18 10:31:00,
2013-10-18 06:32:00,47.0,44.8,29.86,NW,315,0.0,0.2,92,0.00,,,0.00,WUHU216HW,2013-10-18 10:32:00,
2013-10-18 06:33:00,47.0,44.8,29.86,NW,315,0.0,0.2,92,0.00,,,0.00,WUHU216HW,2013-10-18 10:33:00,
2013-10-18 06:35:00,47.0,44.8,29.86,NNW,338,0.2,0.2,92,0.00,,,0.00,WUHU216HW,2013-10-18 10:35:00,
2013-10-18 06:37:00,47.0,45.1,29.86,NNW,338,0.4,0.4,93,0.00,,,0.00,WUHU216HW,2013-10-18 10:37:00,
2013-10-18 06:38:00,47.0,45.1,29.86,NNW,338,0.4,0.4,93,0.00,,,0.00,WUHU216HW,2013-10-18 10:38:00,
2013-10-18 06:40:00,47.0,44.8,29.86,NNW,338,0.7,0.7,92,0.00,,,0.00,WUHU216HW,2013-10-18 10:40:00,
2013-10-18 06:41:00,47.2,45.0,29.86,NNW,338,0.0,0.7,92,0.00,,,0.00,WUHU216HW,2013-10-18 10:41:00,
2013-10-18 06:42:00,47.2,45.0,29.86,NNW,338,0.7,0.7,92,0.00,,,0.00,WUHU216HW,2013-10-18 10:42:00,
2013-10-18 06:43:00,47.2,45.0,29.86,NNW,338,0.7,0.7,92,0.00,,,0.00,WUHU216HW,2013-10-18 10:43:00,
2013-10-18 06:44:00,47.2,45.0,29.86,NNW,338,0.0,0.7,92,0.00,,,0.00,WUHU216HW,2013-10-18 10:44:00,
2013-10-18 06:45:00,47.2,45.3,29.86,NNW,338,0.0,0.7,93,0.00,,,0.00,WUHU216HW,2013-10-18 10:45:00,
2013-10-18 06:47:00,47.2,45.0,29.86,NW,315,0.2,0.7,92,0.00,,,0.00,WUHU216HW,2013-10-18 10:47:00,
2013-10-18 06:48:00,47.2,45.3,29.86,NNW,338,1.0,1.6,93,0.00,,,0.00,WUHU216HW,2013-10-18 10:48:00,
2013-10-18 06:49:00,47.2,45.0,29.86,NNW,338,0.4,1.6,92,0.00,,,0.00,WUHU216HW,2013-10-18 10:49:00,
2013-10-18 06:52:00,47.2,45.3,29.86,NW,311,0.6,2.0,93,0.00,,,0.00,WUHU216HW,2013-10-18 10:52:00,
2013-10-18 06:53:00,47.2,45.0,29.86,WNW,293,0.2,2.0,92,0.00,,,0.00,WUHU216HW,2013-10-18 10:53:00,
2013-10-18 06:55:00,47.2,45.3,29.86,NW,315,0.0,2.0,93,0.00,,,0.00,WUHU216HW,2013-10-18 10:55:00,
2013-10-18 06:56:00,47.2,45.3,29.86,NNW,338,0.4,2.0,93,0.00,,,0.00,WUHU216HW,2013-10-18 10:56:00,
2013-10-18 06:57:00,47.2,45.3,29.86,NNW,338,0.4,2.0,93,0.00,,,0.00,WUHU216HW,2013-10-18 10:57:00,
2013-10-18 06:59:00,47.2,45.3,29.86,NNW,330,0.3,2.0,93,0.00,,,0.00,WUHU216HW,2013-10-18 10:59:00,
2013-10-18 07:00:00,47.2,45.3,29.86,NNW,338,0.9,2.0,93,0.00,,,0.00,WUHU216HW,2013-10-18 11:00:00,
2013-10-18 07:01:00,47.2,45.3,29.86,NNW,327,0.8,1.1,93,0.00,,,0.00,WUHU216HW,2013-10-18 11:01:00,
2013-10-18 07:04:00,47.2,45.3,29.86,NNW,338,0.4,1.1,93,0.00,,,0.00,WUHU216HW,2013-10-18 11:04:00,
2013-10-18 07:05:00,47.2,45.3,29.86,NNW,338,1.1,1.1,93,0.00,,,0.00,WUHU216HW,2013-10-18 11:05:00,
2013-10-18 07:07:00,47.2,45.3,29.86,NNW,330,0.3,1.1,93,0.00,,,0.00,WUHU216HW,2013-10-18 11:07:00,
2013-10-18 07:09:00,47.3,45.5,29.86,NW,315,0.4,1.1,93,0.00,,,0.00,WUHU216HW,2013-10-18 11:09:00,
2013-10-18 07:10:00,47.3,45.5,29.86,NW,315,0.7,1.1,93,0.00,,,0.00,WUHU216HW,2013-10-18 11:10:00,
2013-10-18 07:12:00,47.2,45.3,29.86,NW,315,0.0,1.1,93,0.00,,,0.00,WUHU216HW,2013-10-18 11:12:00,
2013-10-18 07:13:00,47.2,45.3,29.87,NW,315,0.0,1.1,93,0.00,,,0.00,WUHU216HW,2013-10-18 11:13:00,
2013-10-18 07:14:00,47.2,45.3,29.87,NW,315,0.0,1.1,93,0.00,,,0.00,WUHU216HW,2013-10-18 11:14:00,
2013-10-18 07:15:00,47.2,45.3,29.87,NW,315,0.0,0.7,93,0.00,,,0.00,WUHU216HW,2013-10-18 11:15:00,
2013-10-18 07:16:00,47.2,45.3,29.87,North,0,0.2,0.7,93,0.00,,,0.00,WUHU216HW,2013-10-18 11:16:00,
2013-10-18 07:18:00,47.2,45.3,29.87,North,0,0.0,0.7,93,0.00,,,0.00,WUHU216HW,2013-10-18 11:18:00,
2013-10-18 07:19:00,47.2,45.3,29.87,NW,315,0.9,0.9,93,0.00,,,0.00,WUHU216HW,2013-10-18 11:19:00,
2013-10-18 07:20:00,47.2,45.3,29.87,NW,315,0.9,0.9,93,0.00,,,0.00,WUHU216HW,2013-10-18 11:20:00,
2013-10-18 07:22:00,47.0,45.1,29.87,NNW,338,0.0,0.9,93,0.00,,,0.00,WUHU216HW,2013-10-18 11:22:00,
2013-10-18 07:24:00,46.8,44.9,29.87,NNW,338,0.0,0.9,93,0.00,,,0.00,WUHU216HW,2013-10-18 11:24:00,
2013-10-18 07:27:00,46.8,44.9,29.87,NNW,338,0.0,0.9,93,0.00,,,0.00,WUHU216HW,2013-10-18 11:27:00,
2013-10-18 07:29:00,46.8,44.9,29.87,NNW,338,0.0,0.0,93,0.00,,,0.00,WUHU216HW,2013-10-18 11:29:00,
2013-10-18 07:30:00,46.8,44.9,29.87,NW,315,0.4,0.4,93,0.00,,,0.00,WUHU216HW,2013-10-18 11:30:00,
2013-10-18 07:32:00,46.8,44.9,29.87,NW,315,0.4,0.4,93,0.00,,,0.00,WUHU216HW,2013-10-18 11:32:00,
2013-10-18 07:34:00,46.8,44.9,29.87,NW,315,0.0,0.4,93,0.00,,,0.00,WUHU216HW,2013-10-18 11:34:00,
2013-10-18 07:35:00,46.8,44.9,29.87,NW,315,0.0,0.4,93,0.00,,,0.00,WUHU216HW,2013-10-18 11:35:00,
2013-10-18 07:36:00,46.8,44.9,29.87,North,0,0.4,0.4,93,0.00,,,0.00,WUHU216HW,2013-10-18 11:36:00,
2013-10-18 07:37:00,46.8,44.9,29.87,North,0,0.4,0.4,93,0.00,,,0.00,WUHU216HW,2013-10-18 11:37:00,
2013-10-18 07:39:00,46.8,44.9,29.88,North,0,0.2,0.4,93,0.00,,,0.00,WUHU216HW,2013-10-18 11:39:00,
2013-10-18 07:40:00,46.8,44.9,29.87,NNW,338,0.4,0.4,93,0.00,,,0.00,WUHU216HW,2013-10-18 11:40:00,
2013-10-18 07:41:00,46.8,44.9,29.87,NNW,338,0.4,0.4,93,0.00,,,0.00,WUHU216HW,2013-10-18 11:41:00,
2013-10-18 07:43:00,47.0,45.1,29.87,North,0,0.2,0.4,93,0.00,,,0.00,WUHU216HW,2013-10-18 11:43:00,
2013-10-18 07:45:00,47.0,45.1,29.87,NNW,338,0.0,0.4,93,0.00,,,0.00,WUHU216HW,2013-10-18 11:45:00,
2013-10-18 07:46:00,47.0,45.1,29.88,NNW,338,0.0,0.4,93,0.00,,,0.00,WUHU216HW,2013-10-18 11:46:00,
2013-10-18 07:48:00,47.0,45.1,29.88,NNW,338,0.0,0.4,93,0.00,,,0.00,WUHU216HW,2013-10-18 11:48:00,
2013-10-18 07:51:00,47.0,45.1,29.88,NW,315,1.1,1.1,93,0.00,,,0.00,WUHU216HW,2013-10-18 11:51:00,
2013-10-18 07:52:00,47.2,45.3,29.88,NW,318,0.7,1.1,93,0.00,,,0.00,WUHU216HW,2013-10-18 11:52:00,
2013-10-18 07:53:00,47.2,45.3,29.88,NNW,338,1.1,1.1,93,0.00,,,0.00,WUHU216HW,2013-10-18 11:53:00,
2013-10-18 07:55:00,47.2,45.3,29.88,NW,315,0.4,1.1,93,0.00,,,0.00,WUHU216HW,2013-10-18 11:55:00,
2013-10-18 07:57:00,47.2,45.3,29.88,WNW,293,1.1,1.1,93,0.00,,,0.00,WUHU216HW,2013-10-18 11:57:00,
2013-10-18 07:58:00,47.2,45.3,29.88,WNW,293,1.1,1.1,93,0.00,,,0.00,WUHU216HW,2013-10-18 11:58:00,
2013-10-18 07:59:00,47.2,45.3,29.88,WNW,293,1.1,1.1,93,0.00,,,0.00,WUHU216HW,2013-10-18 11:59:00,
2013-10-18 08:02:00,47.3,45.5,29.88,NW,315,1.1,1.1,93,0.00,,,0.00,WUHU216HW,2013-10-18 12:02:00,
2013-10-18 08:03:00,47.3,45.5,29.88,NW,315,0.7,1.1,93,0.00,,,0.00,WUHU216HW,2013-10-18 12:03:00,
2013-10-18 08:04:00,47.3,45.5,29.88,NW,323,0.6,1.1,93,0.00,,,0.00,WUHU216HW,2013-10-18 12:04:00,
2013-10-18 08:08:00,47.5,45.6,29.88,NNW,338,0.2,1.1,93,0.00,,,0.00,WUHU216HW,2013-10-18 12:08:00,
2013-10-18 08:09:00,47.7,45.8,29.88,NW,315,0.4,1.1,93,0.00,,,0.00,WUHU216HW,2013-10-18 12:09:00,
2013-10-18 08:10:00,47.7,45.8,29.88,NNW,338,0.4,1.1,93,0.00,,,0.00,WUHU216HW,2013-10-18 12:10:00,
2013-10-18 08:13:00,47.9,46.0,29.88,NNW,338,0.2,1.1,93,0.00,,,0.00,WUHU216HW,2013-10-18 12:13:00,
2013-10-18 08:14:00,47.9,46.0,29.88,NNW,338,0.2,1.1,93,0.00,,,0.00,WUHU216HW,2013-10-18 12:14:00,
2013-10-18 08:15:00,47.9,46.0,29.89,NNW,338,0.2,1.1,93,0.00,,,0.00,WUHU216HW,2013-10-18 12:15:00,
2013-10-18 08:16:00,47.9,46.0,29.89,North,0,0.2,0.4,93,0.00,,,0.00,WUHU216HW,2013-10-18 12:16:00,
2013-10-18 08:20:00,48.2,46.4,29.89,WNW,283,0.6,0.9,93,0.00,,,0.00,WUHU216HW,2013-10-18 12:20:00,
2013-10-18 08:21:00,48.2,46.4,29.89,North,0,0.7,0.9,93,0.00,,,0.00,WUHU216HW,2013-10-18 12:21:00,
2013-10-18 08:22:00,48.4,46.5,29.89,North,0,0.7,0.9,93,0.00,,,0.00,WUHU216HW,2013-10-18 12:22:00,
2013-10-18 08:25:00,48.6,46.7,29.89,NNW,338,0.4,0.9,93,0.00,,,0.00,WUHU216HW,2013-10-18 12:25:00,
2013-10-18 08:26:00,48.6,46.7,29.89,NNW,338,0.4,0.9,93,0.00,,,0.00,WUHU216HW,2013-10-18 12:26:00,
2013-10-18 08:27:00,48.6,46.7,29.89,NNE,23,1.3,1.3,93,0.00,,,0.00,WUHU216HW,2013-10-18 12:27:00,
2013-10-18 08:28:00,48.6,46.7,29.89,NNE,17,0.8,1.3,93,0.00,,,0.00,WUHU216HW,2013-10-18 12:28:00,
2013-10-18 08:31:00,48.8,46.9,29.89,NW,324,1.1,1.3,93,0.00,,,0.00,WUHU216HW,2013-10-18 12:31:00,
2013-10-18 08:32:00,49.0,47.0,29.89,NNW,338,0.9,1.3,93,0.00,,,0.00,WUHU216HW,2013-10-18 12:32:00,
2013-10-18 08:33:00,49.0,47.0,29.89,NW,315,0.7,1.3,93,0.00,,,0.00,WUHU216HW,2013-10-18 12:33:00,
2013-10-18 08:36:00,49.1,47.2,29.89,NW,315,2.9,2.9,93,0.00,,,0.00,WUHU216HW,2013-10-18 12:36:00,
2013-10-18 08:37:00,49.3,47.6,29.89,NNW,339,2.1,2.9,94,0.00,,,0.00,WUHU216HW,2013-10-18 12:37:00,
2013-10-18 08:38:00,49.3,47.6,29.89,NNE,24,1.2,2.9,94,0.00,,,0.00,WUHU216HW,2013-10-18 12:38:00,
2013-10-18 08:39:00,49.3,47.3,29.89,NNW,338,1.8,2.9,93,0.00,,,0.00,WUHU216HW,2013-10-18 12:39:00,
2013-10-18 08:42:00,49.3,47.6,29.89,WNW,293,1.3,2.9,94,0.00,,,0.00,WUHU216HW,2013-10-18 12:42:00,
2013-10-18 08:43:00,49.5,47.5,29.89,North,0,0.4,2.9,93,0.00,,,0.00,WUHU216HW,2013-10-18 12:43:00,
2013-10-18 08:44:00,49.5,47.5,29.89,North,0,0.4,2.9,93,0.00,,,0.00,WUHU216HW,2013-10-18 12:44:00,
2013-10-18 08:48:00,49.9,47.9,29.89,NNW,338,1.3,2.9,93,0.00,,,0.00,WUHU216HW,2013-10-18 12:48:00,
2013-10-18 08:49:00,49.9,47.9,29.89,NNW,338,1.3,2.9,93,0.00,,,0.00,WUHU216HW,2013-10-18 12:49:00,
2013-10-18 08:50:00,50.0,48.1,29.89,North,0,0.7,2.9,93,0.00,,,0.00,WUHU216HW,2013-10-18 12:50:00,
2013-10-18 08:53:00,50.0,48.1,29.89,North,353,1.3,2.9,93,0.00,,,0.00,WUHU216HW,2013-10-18 12:53:00,
2013-10-18 08:54:00,50.2,48.3,29.89,NNW,338,3.8,3.8,93,0.00,,,0.00,WUHU216HW,2013-10-18 12:54:00,
2013-10-18 08:55:00,50.2,48.3,29.89,NNW,338,3.8,3.8,93,0.00,,,0.00,WUHU216HW,2013-10-18 12:55:00,
2013-10-18 08:56:00,50.4,48.4,29.89,NW,324,1.5,3.8,93,0.00,,,0.00,WUHU216HW,2013-10-18 12:56:00,
2013-10-18 08:59:00,50.6,48.6,29.89,North,0,0.8,3.8,93,0.00,,,0.00,WUHU216HW,2013-10-18 12:59:00,
2013-10-18 09:01:00,50.8,48.8,29.89,NNW,338,2.2,4.0,93,0.00,,,0.00,WUHU216HW,2013-10-18 13:01:00,
2013-10-18 09:02:00,50.8,48.8,29.89,NNE,23,1.3,4.0,93,0.00,,,0.00,WUHU216HW,2013-10-18 13:02:00,
2013-10-18 09:03:00,50.9,49.0,29.89,North,352,1.2,4.0,93,0.00,,,0.00,WUHU216HW,2013-10-18 13:03:00,
2013-10-18 09:04:00,51.1,49.2,29.89,WNW,299,0.8,4.0,93,0.00,,,0.00,WUHU216HW,2013-10-18 13:04:00,
2013-10-18 09:05:00,51.1,49.2,29.89,North,0,2.5,4.0,93,0.00,,,0.00,WUHU216HW,2013-10-18 13:05:00,
2013-10-18 09:07:00,51.3,49.0,29.89,NNW,330,2.6,4.0,92,0.00,,,0.00,WUHU216HW,2013-10-18 13:07:00,
2013-10-18 09:09:00,51.3,49.0,29.89,WNW,293,3.4,4.0,92,0.00,,,0.00,WUHU216HW,2013-10-18 13:09:00,
2013-10-18 09:11:00,51.3,49.0,29.90,NW,315,3.4,3.4,92,0.00,,,0.00,WUHU216HW,2013-10-18 13:11:00,
2013-10-18 09:13:00,51.5,49.1,29.89,NW,315,1.6,3.4,92,0.00,,,0.00,WUHU216HW,2013-10-18 13:13:00,
2013-10-18 09:14:00,51.5,48.9,29.89,North,0,4.3,4.3,91,0.00,,,0.00,WUHU216HW,2013-10-18 13:14:00,
2013-10-18 09:15:00,51.5,48.9,29.89,North,0,3.1,4.3,91,0.00,,,0.00,WUHU216HW,2013-10-18 13:15:00,
2013-10-18 09:17:00,51.5,48.9,29.89,NNE,23,3.4,4.3,91,0.00,,,0.00,WUHU216HW,2013-10-18 13:17:00,
2013-10-18 09:18:00,51.5,48.9,29.89,North,357,2.8,4.3,91,0.00,,,0.00,WUHU216HW,2013-10-18 13:18:00,
2013-10-18 09:20:00,51.5,48.9,29.90,NNE,23,1.6,4.3,91,0.00,,,0.00,WUHU216HW,2013-10-18 13:20:00,
2013-10-18 09:22:00,51.5,48.9,29.90,NW,317,1.2,4.3,91,0.00,,,0.00,WUHU216HW,2013-10-18 13:22:00,
2013-10-18 09:23:00,51.5,48.9,29.90,NNW,338,3.4,4.3,91,0.00,,,0.00,WUHU216HW,2013-10-18 13:23:00,
2013-10-18 09:25:00,51.5,48.9,29.90,North,0,0.4,3.4,91,0.00,,,0.00,WUHU216HW,2013-10-18 13:25:00,
2013-10-18 09:26:00,51.7,49.1,29.90,NNW,338,0.4,3.4,91,0.00,,,0.00,WUHU216HW,2013-10-18 13:26:00,
2013-10-18 09:28:00,52.0,49.7,29.90,NNE,23,2.0,3.4,92,0.00,,,0.00,WUHU216HW,2013-10-18 13:28:00,
2013-10-18 09:29:00,52.2,49.9,29.90,North,350,1.5,3.4,92,0.00,,,0.00,WUHU216HW,2013-10-18 13:29:00,
2013-10-18 09:30:00,52.4,50.0,29.90,WNW,286,0.8,3.4,92,0.00,,,0.00,WUHU216HW,2013-10-18 13:30:00,
2013-10-18 09:31:00,52.4,50.0,29.90,NNW,338,0.9,3.4,92,0.00,,,0.00,WUHU216HW,2013-10-18 13:31:00,
2013-10-18 09:34:00,52.7,50.4,29.90,NW,315,0.7,2.7,92,0.00,,,0.00,WUHU216HW,2013-10-18 13:34:00,
2013-10-18 09:35:00,53.1,50.8,29.90,North,10,0.4,2.7,92,0.00,,,0.00,WUHU216HW,2013-10-18 13:35:00,
2013-10-18 09:36:00,53.3,50.9,29.90,NW,315,2.2,2.7,92,0.00,,,0.00,WUHU216HW,2013-10-18 13:36:00,
2013-10-18 09:37:00,53.5,50.9,29.90,NNW,331,1.8,2.7,91,0.00,,,0.00,WUHU216HW,2013-10-18 13:37:00,
2013-10-18 09:38:00,53.6,51.3,29.90,North,0,1.0,2.7,92,0.00,,,0.00,WUHU216HW,2013-10-18 13:38:00,
2013-10-18 09:39:00,53.6,51.0,29.90,NNW,338,2.0,2.7,91,0.00,,,0.00,WUHU216HW,2013-10-18 13:39:00,
2013-10-18 09:40:00,53.6,51.0,29.90,NNW,330,1.5,2.7,91,0.00,,,0.00,WUHU216HW,2013-10-18 13:40:00,
2013-10-18 09:41:00,53.8,50.7,29.90,North,0,3.1,3.1,89,0.00,,,0.00,WUHU216HW,2013-10-18 13:41:00,
2013-10-18 09:43:00,53.8,50.7,29.90,North,0,2.4,3.1,89,0.00,,,0.00,WUHU216HW,2013-10-18 13:43:00,
2013-10-18 09:44:00,53.8,50.7,29.91,NW,315,1.6,3.1,89,0.00,,,0.00,WUHU216HW,2013-10-18 13:44:00,
2013-10-18 09:46:00,54.0,50.9,29.91,North,352,0.6,3.1,89,0.00,,,0.00,WUHU216HW,2013-10-18 13:46:00,
2013-10-18 09:47:00,54.2,51.0,29.91,NNW,338,1.8,3.1,89,0.00,,,0.00,WUHU216HW,2013-10-18 13:47:00,
2013-10-18 09:48:00,54.4,50.9,29.90,NNW,338,2.7,3.1,88,0.00,,,0.00,WUHU216HW,2013-10-18 13:48:00,
2013-10-18 09:50:00,54.4,50.9,29.91,North,356,1.9,3.1,88,0.00,,,0.00,WUHU216HW,2013-10-18 13:50:00,
2013-10-18 09:51:00,54.4,50.9,29.90,NW,315,2.9,2.9,88,0.00,,,0.00,WUHU216HW,2013-10-18 13:51:00,
2013-10-18 09:53:00,54.7,51.2,29.91,NNE,23,4.7,4.7,88,0.00,,,0.00,WUHU216HW,2013-10-18 13:53:00,
2013-10-18 09:56:00,54.9,51.0,29.91,NNE,20,2.0,4.7,87,0.00,,,0.00,WUHU216HW,2013-10-18 13:56:00,
2013-10-18 09:57:00,54.9,51.0,29.91,NNW,334,1.5,4.7,87,0.00,,,0.00,WUHU216HW,2013-10-18 13:57:00,
2013-10-18 09:59:00,55.1,51.0,29.91,NW,315,1.8,4.7,86,0.00,,,0.00,WUHU216HW,2013-10-18 13:59:00,
2013-10-18 10:00:00,55.1,51.2,29.91,WNW,293,1.3,4.7,87,0.00,,,0.00,WUHU216HW,2013-10-18 14:00:00,
2013-10-18 10:01:00,55.3,51.4,29.91,NW,311,1.1,4.7,87,0.00,,,0.00,WUHU216HW,2013-10-18 14:01:00,
2013-10-18 10:02:00,55.4,51.6,29.91,WNW,293,4.3,4.7,87,0.00,,,0.00,WUHU216HW,2013-10-18 14:02:00,
2013-10-18 10:04:00,55.8,51.3,29.91,NNE,23,1.1,4.3,85,0.00,,,0.00,WUHU216HW,2013-10-18 14:04:00,
2013-10-18 10:05:00,55.8,51.3,29.91,NNE,23,1.1,4.3,85,0.00,,,0.00,WUHU216HW,2013-10-18 14:05:00,
2013-10-18 10:06:00,55.8,51.7,29.91,ENE,68,2.2,4.3,86,0.00,,,0.00,WUHU216HW,2013-10-18 14:06:00,
2013-10-18 10:07:00,55.8,51.7,29.91,ENE,68,2.2,4.3,86,0.00,,,0.00,WUHU216HW,2013-10-18 14:07:00,
2013-10-18 10:10:00,56.0,51.1,29.92,NNW,340,3.2,4.3,84,0.00,,,0.00,WUHU216HW,2013-10-18 14:10:00,
2013-10-18 10:11:00,56.2,50.7,29.92,North,0,3.1,4.3,82,0.00,,,0.00,WUHU216HW,2013-10-18 14:11:00,
2013-10-18 10:12:00,56.2,51.3,29.91,North,0,2.5,4.3,84,0.00,,,0.00,WUHU216HW,2013-10-18 14:12:00,
2013-10-18 10:13:00,56.2,51.3,29.91,North,0,2.5,4.3,84,0.00,,,0.00,WUHU216HW,2013-10-18 14:13:00,
2013-10-18 10:14:00,56.3,51.2,29.91,North,0,1.8,4.3,83,0.00,,,0.00,WUHU216HW,2013-10-18 14:14:00,
2013-10-18 10:16:00,56.3,50.9,29.91,NNW,338,4.0,4.3,82,0.00,,,0.00,WUHU216HW,2013-10-18 14:16:00,
2013-10-18 10:17:00,56.5,51.0,29.91,North,0,4.0,4.3,82,0.00,,,0.00,WUHU216HW,2013-10-18 14:17:00,
2013-10-18 10:18:00,56.5,50.8,29.91,North,0,2.9,4.3,81,0.00,,,0.00,WUHU216HW,2013-10-18 14:18:00,
2013-10-18 10:19:00,56.5,50.8,29.91,East,90,6.0,6.0,81,0.00,,,0.00,WUHU216HW,2013-10-18 14:19:00,
2013-10-18 10:20:00,56.5,50.8,29.91,ENE,60,4.7,6.0,81,0.00,,,0.00,WUHU216HW,2013-10-18 14:20:00,
2013-10-18 10:21:00,56.5,50.8,29.91,North,0,7.4,7.4,81,0.00,,,0.00,WUHU216HW,2013-10-18 14:21:00,
2013-10-18 10:22:00,56.3,50.6,29.91,North,11,4.9,7.4,81,0.00,,,0.00,WUHU216HW,2013-10-18 14:22:00,
2013-10-18 10:24:00,56.2,49.7,29.91,ENE,68,7.4,7.4,79,0.00,,,0.00,WUHU216HW,2013-10-18 14:24:00,
2013-10-18 10:25:00,56.3,49.9,29.91,NE,54,5.4,7.4,79,0.00,,,0.00,WUHU216HW,2013-10-18 14:25:00,
2013-10-18 10:26:00,56.3,50.2,29.91,North,0,6.3,7.4,80,0.00,,,0.00,WUHU216HW,2013-10-18 14:26:00,
2013-10-18 10:27:00,56.5,50.8,29.91,NNW,346,4.7,7.4,81,0.00,,,0.00,WUHU216HW,2013-10-18 14:27:00,
2013-10-18 10:29:00,56.7,51.0,29.91,WNW,293,3.8,7.4,81,0.00,,,0.00,WUHU216HW,2013-10-18 14:29:00,
2013-10-18 10:31:00,56.9,51.4,29.91,NNE,23,3.1,7.4,82,0.00,,,0.00,WUHU216HW,2013-10-18 14:31:00,
2013-10-18 10:32:00,56.9,51.4,29.91,NNE,23,3.1,7.4,82,0.00,,,0.00,WUHU216HW,2013-10-18 14:32:00,
2013-10-18 10:33:00,57.2,51.5,29.91,NW,315,2.7,7.4,81,0.00,,,0.00,WUHU216HW,2013-10-18 14:33:00,
2013-10-18 10:34:00,57.4,51.7,29.91,NNW,332,1.8,6.3,81,0.00,,,0.00,WUHU216HW,2013-10-18 14:34:00,
2013-10-18 10:37:00,57.6,51.9,29.91,NW,315,0.4,3.8,81,0.00,,,0.00,WUHU216HW,2013-10-18 14:37:00,
2013-10-18 10:38:00,57.8,50.9,29.91,NE,39,1.5,3.8,78,0.00,,,0.00,WUHU216HW,2013-10-18 14:38:00,
2013-10-18 10:39:00,57.8,51.3,29.91,NW,315,1.6,3.1,79,0.00,,,0.00,WUHU216HW,2013-10-18 14:39:00,
2013-10-18 10:40:00,57.8,51.3,29.92,NW,318,0.9,3.1,79,0.00,,,0.00,WUHU216HW,2013-10-18 14:40:00,
2013-10-18 10:42:00,58.0,51.5,29.92,NE,44,1.7,2.7,79,0.00,,,0.00,WUHU216HW,2013-10-18 14:42:00,
2013-10-18 10:43:00,58.0,51.8,29.92,NE,44,1.1,1.8,80,0.00,,,0.00,WUHU216HW,2013-10-18 14:43:00,
2013-10-18 10:44:00,58.0,51.8,29.92,North,0,0.7,1.8,80,0.00,,,0.00,WUHU216HW,2013-10-18 14:44:00,
2013-10-18 10:45:00,58.0,51.5,29.92,North,0,0.7,1.8,79,0.00,,,0.00,WUHU216HW,2013-10-18 14:45:00,
2013-10-18 10:47:00,58.0,51.5,29.92,NNW,338,2.5,2.5,79,0.00,,,0.00,WUHU216HW,2013-10-18 14:47:00,
2013-10-18 10:49:00,58.0,51.5,29.92,NNE,23,2.7,2.7,79,0.00,,,0.00,WUHU216HW,2013-10-18 14:49:00,
2013-10-18 10:50:00,58.0,51.5,29.92,NNE,23,2.7,2.7,79,0.00,,,0.00,WUHU216HW,2013-10-18 14:50:00,
2013-10-18 10:51:00,58.1,51.7,29.92,NNE,23,1.8,2.7,79,0.00,,,0.00,WUHU216HW,2013-10-18 14:51:00,
2013-10-18 10:52:00,58.1,51.7,29.92,NNE,23,1.8,2.7,79,0.00,,,0.00,WUHU216HW,2013-10-18 14:52:00,
2013-10-18 10:55:00,58.5,51.7,29.91,ENE,68,2.2,3.6,78,0.00,,,0.00,WUHU216HW,2013-10-18 14:55:00,
2013-10-18 10:56:00,58.5,50.2,29.91,NNE,23,6.9,6.9,74,0.00,,,0.00,WUHU216HW,2013-10-18 14:56:00,
2013-10-18 10:58:00,58.7,50.8,29.91,West,270,2.9,6.9,75,0.00,,,0.00,WUHU216HW,2013-10-18 14:58:00,
2013-10-18 11:01:00,58.9,51.7,29.91,NNW,341,0.7,6.9,77,0.00,,,0.00,WUHU216HW,2013-10-18 15:01:00,
2013-10-18 11:02:00,58.9,51.3,29.91,North,0,1.1,6.9,76,0.00,,,0.00,WUHU216HW,2013-10-18 15:02:00,
2013-10-18 11:04:00,59.0,50.8,29.91,NW,315,4.0,6.9,74,0.00,,,0.00,WUHU216HW,2013-10-18 15:04:00,
2013-10-18 11:06:00,59.6,50.9,29.91,North,6,3.8,4.7,73,0.00,,,0.00,WUHU216HW,2013-10-18 15:06:00,
2013-10-18 11:08:00,59.8,51.1,29.91,NNW,344,2.1,4.7,73,0.00,,,0.00,WUHU216HW,2013-10-18 15:08:00,
2013-10-18 11:09:00,59.9,51.7,29.91,WNW,293,3.8,4.7,74,0.00,,,0.00,WUHU216HW,2013-10-18 15:09:00,
2013-10-18 11:12:00,60.3,50.9,29.91,ESE,113,4.3,6.7,71,0.00,,,0.00,WUHU216HW,2013-10-18 15:12:00,
2013-10-18 11:13:00,60.5,51.1,29.91,North,0,5.1,6.7,71,0.00,,,0.00,WUHU216HW,2013-10-18 15:13:00,
2013-10-18 11:15:00,60.7,52.0,29.91,North,0,2.0,6.7,73,0.00,,,0.00,WUHU216HW,2013-10-18 15:15:00,
2013-10-18 11:17:00,60.8,50.3,29.91,NNW,336,3.2,6.7,68,0.00,,,0.00,WUHU216HW,2013-10-18 15:17:00,
2013-10-18 11:18:00,61.0,51.3,29.91,NNW,335,2.3,6.7,70,0.00,,,0.00,WUHU216HW,2013-10-18 15:18:00,
2013-10-18 11:19:00,61.0,51.3,29.91,NNW,335,2.3,6.7,70,0.00,,,0.00,WUHU216HW,2013-10-18 15:19:00,
2013-10-18 11:20:00,61.2,51.0,29.91,NNE,12,5.8,6.0,69,0.00,,,0.00,WUHU216HW,2013-10-18 15:20:00,
2013-10-18 11:22:00,61.2,50.6,29.91,NNE,23,3.5,6.0,68,0.00,,,0.00,WUHU216HW,2013-10-18 15:22:00,
2013-10-18 11:23:00,61.2,51.0,29.91,North,0,2.2,6.0,69,0.00,,,0.00,WUHU216HW,2013-10-18 15:23:00,
2013-10-18 11:24:00,61.6,51.4,29.91,NE,45,3.6,6.0,69,0.00,,,0.00,WUHU216HW,2013-10-18 15:24:00,
2013-10-18 11:25:00,61.6,51.4,29.91,NE,34,3.5,6.0,69,0.00,,,0.00,WUHU216HW,2013-10-18 15:25:00,
2013-10-18 11:26:00,61.7,51.5,29.91,NNW,338,4.3,6.0,69,0.00,,,0.00,WUHU216HW,2013-10-18 15:26:00,
2013-10-18 11:27:00,61.9,51.7,29.91,NNW,344,3.0,6.0,69,0.00,,,0.00,WUHU216HW,2013-10-18 15:27:00,
2013-10-18 11:28:00,62.1,51.8,29.91,NW,315,3.1,6.0,69,0.00,,,0.00,WUHU216HW,2013-10-18 15:28:00,
2013-10-18 11:29:00,62.3,51.6,29.91,NNW,338,3.4,5.6,68,0.00,,,0.00,WUHU216HW,2013-10-18 15:29:00,
2013-10-18 11:30:00,62.3,51.6,29.91,North,355,2.8,4.3,68,0.00,,,0.00,WUHU216HW,2013-10-18 15:30:00,
2013-10-18 11:31:00,62.5,51.0,29.91,North,0,5.4,5.4,66,0.00,,,0.00,WUHU216HW,2013-10-18 15:31:00,
2013-10-18 11:32:00,62.5,51.0,29.91,North,0,5.4,5.4,66,0.00,,,0.00,WUHU216HW,2013-10-18 15:32:00,
2013-10-18 11:33:00,62.5,50.1,29.91,ENE,68,6.5,6.5,64,0.00,,,0.00,WUHU216HW,2013-10-18 15:33:00,
2013-10-18 11:35:00,62.3,50.3,29.90,North,10,3.7,6.5,65,0.00,,,0.00,WUHU216HW,2013-10-18 15:35:00,
2013-10-18 11:36:00,62.3,50.3,29.90,NNE,12,3.2,6.5,65,0.00,,,0.00,WUHU216HW,2013-10-18 15:36:00,
2013-10-18 11:37:00,62.5,50.5,29.90,North,0,2.8,6.5,65,0.00,,,0.00,WUHU216HW,2013-10-18 15:37:00,
2013-10-18 11:38:00,62.5,50.5,29.90,North,0,2.8,6.5,65,0.00,,,0.00,WUHU216HW,2013-10-18 15:38:00,
2013-10-18 11:40:00,62.6,50.7,29.91,North,0,2.2,6.5,65,0.00,,,0.00,WUHU216HW,2013-10-18 15:40:00,
2013-10-18 11:42:00,62.8,50.4,29.91,NNW,338,3.5,4.0,64,0.00,,,0.00,WUHU216HW,2013-10-18 15:42:00,
2013-10-18 11:43:00,62.8,50.4,29.91,NNW,338,3.5,4.0,64,0.00,,,0.00,WUHU216HW,2013-10-18 15:43:00,
2013-10-18 11:44:00,62.8,49.6,29.90,NE,45,4.7,4.7,62,0.00,,,0.00,WUHU216HW,2013-10-18 15:44:00,
2013-10-18 11:45:00,62.8,50.4,29.90,NE,37,3.7,4.7,64,0.00,,,0.00,WUHU216HW,2013-10-18 15:45:00,
2013-10-18 11:48:00,63.0,50.2,29.91,NNW,330,2.8,4.7,63,0.00,,,0.00,WUHU216HW,2013-10-18 15:48:00,
2013-10-18 11:51:00,62.8,49.1,29.90,NE,45,5.8,10.3,61,0.00,,,0.00,WUHU216HW,2013-10-18 15:51:00,
2013-10-18 11:53:00,62.6,49.4,29.90,East,90,7.6,10.3,62,0.00,,,0.00,WUHU216HW,2013-10-18 15:53:00,
2013-10-18 11:55:00,62.6,50.7,29.90,North,11,4.8,10.3,65,0.00,,,0.00,WUHU216HW,2013-10-18 15:55:00,
2013-10-18 11:56:00,62.6,50.2,29.90,NNE,16,3.3,10.3,64,0.00,,,0.00,WUHU216HW,2013-10-18 15:56:00,
2013-10-18 11:57:00,62.6,50.2,29.90,North,0,1.9,10.3,64,0.00,,,0.00,WUHU216HW,2013-10-18 15:57:00,
2013-10-18 11:59:00,62.8,50.4,29.90,NW,315,2.7,7.6,64,0.00,,,0.00,WUHU216HW,2013-10-18 15:59:00,
2013-10-18 12:00:00,63.0,51.0,29.90,NW,319,1.8,7.6,65,0.00,,,0.00,WUHU216HW,2013-10-18 16:00:00,
2013-10-18 12:01:00,63.0,51.0,29.90,NNW,338,2.9,7.6,65,0.00,,,0.00,WUHU216HW,2013-10-18 16:01:00,
2013-10-18 12:02:00,63.2,50.3,29.90,North,0,3.4,7.6,63,0.00,,,0.00,WUHU216HW,2013-10-18 16:02:00,
2013-10-18 12:05:00,63.2,48.2,29.90,NNE,22,5.1,6.7,58,0.00,,,0.00,WUHU216HW,2013-10-18 16:05:00,
2013-10-18 12:07:00,63.0,49.3,29.90,SSE,158,2.5,6.7,61,0.00,,,0.00,WUHU216HW,2013-10-18 16:07:00,
2013-10-18 12:08:00,63.0,49.8,29.90,ESE,118,2.2,6.7,62,0.00,,,0.00,WUHU216HW,2013-10-18 16:08:00,
2013-10-18 12:12:00,63.2,49.5,29.90,NNE,18,4.3,7.8,61,0.00,,,0.00,WUHU216HW,2013-10-18 16:12:00,
2013-10-18 12:13:00,63.2,49.1,29.90,ENE,68,7.2,7.8,60,0.00,,,0.00,WUHU216HW,2013-10-18 16:13:00,
2013-10-18 12:14:00,63.0,49.0,29.90,ENE,62,4.2,7.8,60,0.00,,,0.00,WUHU216HW,2013-10-18 16:14:00,
2013-10-18 12:18:00,63.2,49.5,29.90,ENE,59,4.3,7.8,61,0.00,,,0.00,WUHU216HW,2013-10-18 16:18:00,
2013-10-18 12:19:00,63.2,49.1,29.90,ENE,68,5.1,7.8,60,0.00,,,0.00,WUHU216HW,2013-10-18 16:19:00,
2013-10-18 12:23:00,63.5,49.4,29.90,NE,45,3.8,5.1,60,0.00,,,0.00,WUHU216HW,2013-10-18 16:23:00,
2013-10-18 12:24:00,63.7,49.6,29.90,NE,45,3.4,5.1,60,0.00,,,0.00,WUHU216HW,2013-10-18 16:24:00,
2013-10-18 12:25:00,63.7,50.4,29.90,NNE,25,2.8,5.1,62,0.00,,,0.00,WUHU216HW,2013-10-18 16:25:00,
2013-10-18 12:26:00,63.9,49.8,29.90,North,350,2.3,5.1,60,0.00,,,0.00,WUHU216HW,2013-10-18 16:26:00,
2013-10-18 12:29:00,64.3,49.6,29.90,East,90,5.8,5.8,59,0.00,,,0.00,WUHU216HW,2013-10-18 16:29:00,
2013-10-18 12:30:00,64.3,49.6,29.90,East,80,5.2,5.8,59,0.00,,,0.00,WUHU216HW,2013-10-18 16:30:00,
2013-10-18 12:32:00,64.3,49.1,29.90,ENE,68,9.6,9.6,58,0.00,,,0.00,WUHU216HW,2013-10-18 16:32:00,
2013-10-18 12:34:00,63.7,49.1,29.90,NE,38,3.1,9.6,59,0.00,,,0.00,WUHU216HW,2013-10-18 16:34:00,
2013-10-18 12:35:00,63.7,50.1,29.90,NE,39,2.5,9.6,61,0.00,,,0.00,WUHU216HW,2013-10-18 16:35:00,
2013-10-18 12:38:00,64.3,50.0,29.89,North,0,5.8,9.6,60,0.00,,,0.00,WUHU216HW,2013-10-18 16:38:00,
2013-10-18 12:39:00,64.3,50.5,29.89,North,0,4.0,9.6,61,0.00,,,0.00,WUHU216HW,2013-10-18 16:39:00,
2013-10-18 12:40:00,64.4,51.1,29.89,North,352,1.8,9.6,62,0.00,,,0.00,WUHU216HW,2013-10-18 16:40:00,
2013-10-18 12:41:00,64.4,50.2,29.89,NNW,338,4.5,9.6,60,0.00,,,0.00,WUHU216HW,2013-10-18 16:41:00,
2013-10-18 12:43:00,64.8,49.6,29.89,NNE,23,3.6,5.8,58,0.00,,,0.00,WUHU216HW,2013-10-18 16:43:00,
2013-10-18 12:44:00,65.0,50.3,29.89,NNE,23,2.7,5.8,59,0.00,,,0.00,WUHU216HW,2013-10-18 16:44:00,
2013-10-18 12:45:00,65.0,50.8,29.89,ENE,68,4.0,5.8,60,0.00,,,0.00,WUHU216HW,2013-10-18 16:45:00,
2013-10-18 12:46:00,65.2,50.0,29.89,NE,52,3.1,5.8,58,0.00,,,0.00,WUHU216HW,2013-10-18 16:46:00,
2013-10-18 12:49:00,65.3,51.1,29.89,North,9,2.5,4.5,60,0.00,,,0.00,WUHU216HW,2013-10-18 16:49:00,
2013-10-18 12:50:00,65.5,51.8,29.89,North,6,1.0,4.5,61,0.00,,,0.00,WUHU216HW,2013-10-18 16:50:00,
2013-10-18 12:51:00,65.7,51.0,29.89,ENE,68,1.8,4.0,59,0.00,,,0.00,WUHU216HW,2013-10-18 16:51:00,
2013-10-18 12:52:00,65.7,51.0,29.89,North,0,2.9,4.0,59,0.00,,,0.00,WUHU216HW,2013-10-18 16:52:00,
2013-10-18 12:55:00,65.7,50.1,29.89,North,0,3.6,4.5,57,0.00,,,0.00,WUHU216HW,2013-10-18 16:55:00,
2013-10-18 12:57:00,65.7,51.0,29.88,North,0,1.5,4.5,59,0.00,,,0.00,WUHU216HW,2013-10-18 16:57:00,
2013-10-18 12:58:00,65.9,51.7,29.88,North,10,1.2,4.5,60,0.00,,,0.00,WUHU216HW,2013-10-18 16:58:00,
2013-10-18 13:00:00,65.9,51.2,29.88,NNW,347,3.1,4.5,59,0.00,,,0.00,WUHU216HW,2013-10-18 17:00:00,
2013-10-18 13:03:00,66.2,52.0,29.88,WNW,287,2.3,3.6,60,0.00,,,0.00,WUHU216HW,2013-10-18 17:03:00,
2013-10-18 13:04:00,66.4,52.2,29.88,North,351,1.5,3.6,60,0.00,,,0.00,WUHU216HW,2013-10-18 17:04:00,
2013-10-18 13:05:00,66.4,50.8,29.89,NNW,338,2.5,3.4,57,0.00,,,0.00,WUHU216HW,2013-10-18 17:05:00,
2013-10-18 13:06:00,66.6,51.8,29.88,NNW,347,2.2,3.4,59,0.00,,,0.00,WUHU216HW,2013-10-18 17:06:00,
2013-10-18 13:08:00,66.6,52.7,29.88,ENE,68,1.1,3.4,61,0.00,,,0.00,WUHU216HW,2013-10-18 17:08:00,
2013-10-18 13:09:00,66.8,52.9,29.88,North,0,3.1,3.1,61,0.00,,,0.00,WUHU216HW,2013-10-18 17:09:00,
2013-10-18 13:11:00,67.0,50.8,29.88,WNW,293,1.1,3.1,56,0.00,,,0.00,WUHU216HW,2013-10-18 17:11:00,
2013-10-18 13:13:00,66.8,49.6,29.88,NW,315,5.4,5.4,54,0.00,,,0.00,WUHU216HW,2013-10-18 17:13:00,
2013-10-18 13:14:00,66.8,50.6,29.88,NW,315,3.3,5.4,56,0.00,,,0.00,WUHU216HW,2013-10-18 17:14:00,
2013-10-18 13:15:00,66.8,51.0,29.88,WNW,293,2.5,5.4,57,0.00,,,0.00,WUHU216HW,2013-10-18 17:15:00,
2013-10-18 13:16:00,66.8,51.0,29.88,North,0,2.5,5.4,57,0.00,,,0.00,WUHU216HW,2013-10-18 17:16:00,
2013-10-18 13:17:00,66.8,50.6,29.88,NNE,23,5.1,5.4,56,0.00,,,0.00,WUHU216HW,2013-10-18 17:17:00,
2013-10-18 13:18:00,66.8,49.6,29.88,NNE,13,4.3,5.4,54,0.00,,,0.00,WUHU216HW,2013-10-18 17:18:00,
2013-10-18 13:19:00,66.6,50.4,29.88,North,0,2.7,5.4,56,0.00,,,0.00,WUHU216HW,2013-10-18 17:19:00,
2013-10-18 13:20:00,66.6,50.9,29.87,WSW,248,2.7,5.4,57,0.00,,,0.00,WUHU216HW,2013-10-18 17:20:00,
2013-10-18 13:21:00,66.6,51.4,29.87,West,265,2.3,5.4,58,0.00,,,0.00,WUHU216HW,2013-10-18 17:21:00,
2013-10-18 13:22:00,66.8,51.6,29.87,WNW,295,1.0,5.4,58,0.00,,,0.00,WUHU216HW,2013-10-18 17:22:00,
2013-10-18 13:24:00,67.0,50.8,29.87,NW,315,4.2,5.1,56,0.00,,,0.00,WUHU216HW,2013-10-18 17:24:00,
2013-10-18 13:25:00,67.0,50.8,29.88,NW,325,3.1,5.1,56,0.00,,,0.00,WUHU216HW,2013-10-18 17:25:00,
2013-10-18 13:27:00,67.0,50.2,29.88,North,0,1.5,4.9,55,0.00,,,0.00,WUHU216HW,2013-10-18 17:27:00,
2013-10-18 13:31:00,66.8,49.2,29.87,NNW,345,3.0,4.9,53,0.00,,,0.00,WUHU216HW,2013-10-18 17:31:00,
2013-10-18 13:32:00,66.6,50.0,29.87,North,0,1.9,4.9,55,0.00,,,0.00,WUHU216HW,2013-10-18 17:32:00,
2013-10-18 13:33:00,66.6,50.0,29.87,NNE,23,2.5,4.5,55,0.00,,,0.00,WUHU216HW,2013-10-18 17:33:00,
2013-10-18 13:34:00,66.6,50.0,29.87,NNE,14,2.0,4.5,55,0.00,,,0.00,WUHU216HW,2013-10-18 17:34:00,
2013-10-18 13:35:00,66.6,50.0,29.87,North,0,2.5,4.5,55,0.00,,,0.00,WUHU216HW,2013-10-18 17:35:00,
2013-10-18 13:36:00,66.6,50.4,29.87,NNW,341,2.2,4.5,56,0.00,,,0.00,WUHU216HW,2013-10-18 17:36:00,
2013-10-18 13:37:00,66.6,50.4,29.87,NW,315,1.8,4.5,56,0.00,,,0.00,WUHU216HW,2013-10-18 17:37:00,
2013-10-18 13:39:00,66.8,50.6,29.87,NNW,348,2.3,4.0,56,0.00,,,0.00,WUHU216HW,2013-10-18 17:39:00,
2013-10-18 13:40:00,67.0,49.8,29.87,North,0,4.5,4.5,54,0.00,,,0.00,WUHU216HW,2013-10-18 17:40:00,
2013-10-18 13:41:00,67.1,50.0,29.87,NNW,338,3.6,4.9,54,0.00,,,0.00,WUHU216HW,2013-10-18 17:41:00,
2013-10-18 13:42:00,67.1,50.0,29.87,NNW,338,3.6,4.9,54,0.00,,,0.00,WUHU216HW,2013-10-18 17:42:00,
2013-10-18 13:43:00,67.0,49.2,29.87,NNW,345,1.7,4.9,53,0.00,,,0.00,WUHU216HW,2013-10-18 17:43:00,
2013-10-18 13:44:00,67.1,49.4,29.87,North,0,1.8,4.9,53,0.00,,,0.00,WUHU216HW,2013-10-18 17:44:00,
2013-10-18 13:46:00,67.3,49.2,29.87,NE,45,3.6,4.9,52,0.00,,,0.00,WUHU216HW,2013-10-18 17:46:00,
2013-10-18 13:47:00,67.1,48.0,29.87,NE,38,2.7,4.9,50,0.00,,,0.00,WUHU216HW,2013-10-18 17:47:00,
2013-10-18 13:48:00,66.8,47.6,29.87,NE,45,3.6,4.9,50,0.00,,,0.00,WUHU216HW,2013-10-18 17:48:00,
2013-10-18 13:50:00,66.2,48.2,29.86,NE,45,4.2,5.6,52,0.00,,,0.00,WUHU216HW,2013-10-18 17:50:00,
2013-10-18 13:52:00,66.2,48.6,29.86,North,0,4.0,5.6,53,0.00,,,0.00,WUHU216HW,2013-10-18 17:52:00,
2013-10-18 13:53:00,66.2,48.6,29.86,NNE,23,8.7,8.7,53,0.00,,,0.00,WUHU216HW,2013-10-18 17:53:00,
2013-10-18 13:54:00,66.2,48.6,29.86,NE,41,6.1,8.7,53,0.00,,,0.00,WUHU216HW,2013-10-18 17:54:00,
2013-10-18 13:56:00,66.2,48.6,29.86,NNE,29,6.4,9.2,53,0.00,,,0.00,WUHU216HW,2013-10-18 17:56:00,
2013-10-18 13:58:00,66.2,48.6,29.86,North,349,5.5,9.2,53,0.00,,,0.00,WUHU216HW,2013-10-18 17:58:00,
2013-10-18 13:59:00,66.2,49.2,29.86,NE,45,4.0,9.2,54,0.00,,,0.00,WUHU216HW,2013-10-18 17:59:00,
2013-10-18 14:00:00,66.2,49.6,29.86,North,0,4.5,9.2,55,0.00,,,0.00,WUHU216HW,2013-10-18 18:00:00,
2013-10-18 14:02:00,66.4,49.2,29.86,NNE,23,5.6,9.2,54,0.00,,,0.00,WUHU216HW,2013-10-18 18:02:00,
2013-10-18 14:03:00,66.4,49.2,29.86,NNE,16,4.1,9.2,54,0.00,,,0.00,WUHU216HW,2013-10-18 18:03:00,
2013-10-18 14:04:00,66.6,50.0,29.86,North,0,1.6,9.2,55,0.00,,,0.00,WUHU216HW,2013-10-18 18:04:00,
2013-10-18 14:07:00,66.8,49.2,29.86,NNW,347,4.3,5.6,53,0.00,,,0.00,WUHU216HW,2013-10-18 18:07:00,
2013-10-18 14:09:00,67.1,49.4,29.86,NNW,338,3.1,5.6,53,0.00,,,0.00,WUHU216HW,2013-10-18 18:09:00,
2013-10-18 14:10:00,67.1,49.0,29.86,NW,315,3.4,5.6,52,0.00,,,0.00,WUHU216HW,2013-10-18 18:10:00,
2013-10-18 14:11:00,67.3,49.6,29.86,NNW,335,2.3,5.6,53,0.00,,,0.00,WUHU216HW,2013-10-18 18:11:00,
2013-10-18 14:12:00,67.5,49.8,29.86,SE,146,1.2,5.1,53,0.00,,,0.00,WUHU216HW,2013-10-18 18:12:00,
2013-10-18 14:13:00,67.7,50.9,29.86,NE,45,1.8,5.1,55,0.00,,,0.00,WUHU216HW,2013-10-18 18:13:00,
2013-10-18 14:16:00,68.0,50.8,29.86,North,0,1.6,3.6,54,0.00,,,0.00,WUHU216HW,2013-10-18 18:16:00,
2013-10-18 14:17:00,67.9,50.0,29.86,North,0,1.8,3.4,53,0.00,,,0.00,WUHU216HW,2013-10-18 18:17:00,
2013-10-18 14:18:00,68.0,50.8,29.86,North,356,1.1,3.4,54,0.00,,,0.00,WUHU216HW,2013-10-18 18:18:00,
2013-10-18 14:22:00,68.0,49.8,29.86,East,100,3.7,4.0,52,0.00,,,0.00,WUHU216HW,2013-10-18 18:22:00,
2013-10-18 14:23:00,68.0,50.2,29.86,SE,144,2.6,4.0,53,0.00,,,0.00,WUHU216HW,2013-10-18 18:23:00,
2013-10-18 14:24:00,68.0,50.8,29.85,North,0,2.5,4.0,54,0.00,,,0.00,WUHU216HW,2013-10-18 18:24:00,
2013-10-18 14:28:00,68.0,49.8,29.85,NW,315,4.0,5.1,52,0.00,,,0.00,WUHU216HW,2013-10-18 18:28:00,
2013-10-18 14:29:00,68.0,49.8,29.85,NNW,331,3.1,5.1,52,0.00,,,0.00,WUHU216HW,2013-10-18 18:29:00,
2013-10-18 14:30:00,68.2,50.4,29.85,North,7,1.7,5.1,53,0.00,,,0.00,WUHU216HW,2013-10-18 18:30:00,
2013-10-18 14:34:00,68.0,49.8,29.85,NW,315,4.3,5.1,52,0.00,,,0.00,WUHU216HW,2013-10-18 18:34:00,
2013-10-18 14:35:00,68.0,49.2,29.85,North,8,4.2,4.3,51,0.00,,,0.00,WUHU216HW,2013-10-18 18:35:00,
2013-10-18 14:37:00,68.0,50.8,29.85,North,11,3.3,5.6,54,0.00,,,0.00,WUHU216HW,2013-10-18 18:37:00,
2013-10-18 14:40:00,68.4,50.6,29.84,NW,315,3.6,5.6,53,0.00,,,0.00,WUHU216HW,2013-10-18 18:40:00,
2013-10-18 14:41:00,68.4,49.6,29.84,NW,315,4.3,5.6,51,0.00,,,0.00,WUHU216HW,2013-10-18 18:41:00,
2013-10-18 14:42:00,68.6,50.8,29.84,ENE,68,5.8,5.8,53,0.00,,,0.00,WUHU216HW,2013-10-18 18:42:00,
2013-10-18 14:45:00,68.6,50.2,29.84,NNW,336,1.8,5.8,52,0.00,,,0.00,WUHU216HW,2013-10-18 18:45:00,
2013-10-18 14:46:00,68.6,50.8,29.84,NW,315,1.6,5.8,53,0.00,,,0.00,WUHU216HW,2013-10-18 18:46:00,
2013-10-18 14:47:00,68.6,50.8,29.84,North,358,1.4,5.8,53,0.00,,,0.00,WUHU216HW,2013-10-18 18:47:00,
2013-10-18 14:48:00,68.6,49.8,29.84,ENE,68,3.1,5.8,51,0.00,,,0.00,WUHU216HW,2013-10-18 18:48:00,
2013-10-18 14:51:00,68.6,50.8,29.84,NW,315,1.6,5.8,53,0.00,,,0.00,WUHU216HW,2013-10-18 18:51:00,
2013-10-18 14:52:00,68.8,51.4,29.84,WNW,301,0.9,3.1,54,0.00,,,0.00,WUHU216HW,2013-10-18 18:52:00,
2013-10-18 14:53:00,68.8,51.4,29.84,WNW,301,0.9,3.1,54,0.00,,,0.00,WUHU216HW,2013-10-18 18:53:00,
2013-10-18 14:56:00,69.1,49.1,29.84,NE,45,4.7,4.7,49,0.00,,,0.00,WUHU216HW,2013-10-18 18:56:00,
2013-10-18 14:57:00,69.1,49.1,29.84,NE,45,4.7,4.7,49,0.00,,,0.00,WUHU216HW,2013-10-18 18:57:00,
2013-10-18 14:58:00,68.9,49.6,29.84,North,2,4.1,4.7,50,0.00,,,0.00,WUHU216HW,2013-10-18 18:58:00,
2013-10-18 14:59:00,68.9,50.1,29.84,NNW,345,3.1,4.7,51,0.00,,,0.00,WUHU216HW,2013-10-18 18:59:00,
2013-10-18 15:00:00,68.8,49.4,29.84,NE,45,4.0,4.7,50,0.00,,,0.00,WUHU216HW,2013-10-18 19:00:00,
2013-10-18 15:02:00,68.6,49.8,29.84,NNE,12,4.0,5.8,51,0.00,,,0.00,WUHU216HW,2013-10-18 19:02:00,
2013-10-18 15:03:00,68.4,49.2,29.83,ENE,63,3.9,6.9,50,0.00,,,0.00,WUHU216HW,2013-10-18 19:03:00,
2013-10-18 15:04:00,68.0,48.2,29.83,ENE,57,2.5,6.9,49,0.00,,,0.00,WUHU216HW,2013-10-18 19:04:00,
2013-10-18 15:05:00,68.0,48.2,29.83,ENE,57,2.5,6.9,49,0.00,,,0.00,WUHU216HW,2013-10-18 19:05:00,
2013-10-18 15:07:00,67.9,49.6,29.83,NNE,21,0.8,6.9,52,0.00,,,0.00,WUHU216HW,2013-10-18 19:07:00,
2013-10-18 15:08:00,67.9,50.0,29.84,ENE,68,1.1,6.9,53,0.00,,,0.00,WUHU216HW,2013-10-18 19:08:00,
2013-10-18 15:10:00,68.0,50.8,29.84,WNW,293,2.5,6.9,54,0.00,,,0.00,WUHU216HW,2013-10-18 19:10:00,
2013-10-18 15:11:00,68.2,50.0,29.84,NE,45,3.1,6.9,52,0.00,,,0.00,WUHU216HW,2013-10-18 19:11:00,
2013-10-18 15:13:00,68.4,50.6,29.84,NNE,28,0.8,3.1,53,0.00,,,0.00,WUHU216HW,2013-10-18 19:13:00,
2013-10-18 15:15:00,68.6,49.2,29.83,NNW,328,3.1,4.0,50,0.00,,,0.00,WUHU216HW,2013-10-18 19:15:00,
2013-10-18 15:16:00,68.8,50.0,29.84,WNW,286,2.1,4.0,51,0.00,,,0.00,WUHU216HW,2013-10-18 19:16:00,
2013-10-18 15:18:00,68.9,50.6,29.84,NNW,338,2.0,4.0,52,0.00,,,0.00,WUHU216HW,2013-10-18 19:18:00,
2013-10-18 15:19:00,68.9,50.1,29.84,NNW,338,3.6,4.0,51,0.00,,,0.00,WUHU216HW,2013-10-18 19:19:00,
2013-10-18 15:20:00,68.9,49.6,29.84,NNE,23,5.6,5.6,50,0.00,,,0.00,WUHU216HW,2013-10-18 19:20:00,
2013-10-18 15:21:00,68.9,49.6,29.84,NNE,23,5.6,5.6,50,0.00,,,0.00,WUHU216HW,2013-10-18 19:21:00,
2013-10-18 15:22:00,68.9,50.1,29.84,NNE,19,3.3,5.6,51,0.00,,,0.00,WUHU216HW,2013-10-18 19:22:00,
2013-10-18 15:23:00,68.8,50.0,29.84,North,0,3.6,5.6,51,0.00,,,0.00,WUHU216HW,2013-10-18 19:23:00,
2013-10-18 15:24:00,68.8,49.4,29.84,NNE,23,3.6,5.6,50,0.00,,,0.00,WUHU216HW,2013-10-18 19:24:00,
2013-10-18 15:25:00,68.8,50.0,29.84,NNE,15,2.7,5.6,51,0.00,,,0.00,WUHU216HW,2013-10-18 19:25:00,
2013-10-18 15:27:00,68.6,49.8,29.84,WNW,293,1.1,5.6,51,0.00,,,0.00,WUHU216HW,2013-10-18 19:27:00,
2013-10-18 15:29:00,68.6,49.2,29.83,NE,45,2.7,5.6,50,0.00,,,0.00,WUHU216HW,2013-10-18 19:29:00,
2013-10-18 15:30:00,68.8,50.0,29.83,NNE,31,2.0,5.6,51,0.00,,,0.00,WUHU216HW,2013-10-18 19:30:00,
2013-10-18 15:32:00,68.8,49.4,29.83,North,0,3.6,3.6,50,0.00,,,0.00,WUHU216HW,2013-10-18 19:32:00,
2013-10-18 15:34:00,68.6,49.2,29.83,NNE,23,3.1,4.9,50,0.00,,,0.00,WUHU216HW,2013-10-18 19:34:00,
2013-10-18 15:35:00,68.6,49.8,29.83,West,259,1.2,4.9,51,0.00,,,0.00,WUHU216HW,2013-10-18 19:35:00,
2013-10-18 15:37:00,68.4,49.6,29.83,North,0,4.3,4.9,51,0.00,,,0.00,WUHU216HW,2013-10-18 19:37:00,
2013-10-18 15:40:00,68.2,50.0,29.83,North,351,1.4,4.9,52,0.00,,,0.00,WUHU216HW,2013-10-18 19:40:00,
2013-10-18 15:41:00,68.4,50.0,29.83,NNE,23,1.6,4.9,52,0.00,,,0.00,WUHU216HW,2013-10-18 19:41:00,
2013-10-18 15:42:00,68.4,50.0,29.83,NNE,13,1.4,4.9,52,0.00,,,0.00,WUHU216HW,2013-10-18 19:42:00,
2013-10-18 15:45:00,68.8,51.0,29.83,SE,135,1.1,4.3,53,0.00,,,0.00,WUHU216HW,2013-10-18 19:45:00,
2013-10-18 15:46:00,68.9,51.1,29.83,North,0,1.8,4.3,53,0.00,,,0.00,WUHU216HW,2013-10-18 19:46:00,
2013-10-18 15:47:00,69.1,51.2,29.82,North,0,1.5,2.9,53,0.00,,,0.00,WUHU216HW,2013-10-18 19:47:00,
2013-10-18 15:49:00,69.1,50.2,29.83,NNW,341,2.8,4.7,51,0.00,,,0.00,WUHU216HW,2013-10-18 19:49:00,
2013-10-18 15:50:00,69.1,50.2,29.83,East,90,2.5,4.7,51,0.00,,,0.00,WUHU216HW,2013-10-18 19:50:00,
2013-10-18 15:51:00,69.1,49.8,29.82,North,0,2.5,4.7,50,0.00,,,0.00,WUHU216HW,2013-10-18 19:51:00,
2013-10-18 15:52:00,69.1,50.2,29.82,NNW,341,2.2,4.7,51,0.00,,,0.00,WUHU216HW,2013-10-18 19:52:00,
2013-10-18 15:53:00,69.1,50.8,29.82,WNW,295,1.3,4.7,52,0.00,,,0.00,WUHU216HW,2013-10-18 19:53:00,
2013-10-18 15:55:00,69.1,50.2,29.82,NW,315,2.3,4.7,51,0.00,,,0.00,WUHU216HW,2013-10-18 19:55:00,
2013-10-18 15:56:00,69.3,50.0,29.82,North,0,2.0,4.7,50,0.00,,,0.00,WUHU216HW,2013-10-18 19:56:00,
2013-10-18 15:57:00,69.3,50.4,29.82,North,356,1.2,4.7,51,0.00,,,0.00,WUHU216HW,2013-10-18 19:57:00,
2013-10-18 15:59:00,69.3,51.0,29.82,NNE,20,0.9,2.9,52,0.00,,,0.00,WUHU216HW,2013-10-18 19:59:00,
2013-10-18 16:00:00,69.5,51.1,29.82,SSW,203,1.8,2.9,52,0.00,,,0.00,WUHU216HW,2013-10-18 20:00:00,
2013-10-18 16:01:00,69.5,51.1,29.82,SSW,203,1.3,2.9,52,0.00,,,0.00,WUHU216HW,2013-10-18 20:01:00,
2013-10-18 16:02:00,69.5,50.6,29.82,North,0,3.4,3.4,51,0.00,,,0.00,WUHU216HW,2013-10-18 20:02:00,
2013-10-18 16:04:00,69.5,51.1,29.82,NNW,339,2.3,3.4,52,0.00,,,0.00,WUHU216HW,2013-10-18 20:04:00,
2013-10-18 16:05:00,69.7,50.8,29.82,NW,326,2.3,3.4,51,0.00,,,0.00,WUHU216HW,2013-10-18 20:05:00,
2013-10-18 16:06:00,69.7,50.8,29.82,NW,326,2.3,3.4,51,0.00,,,0.00,WUHU216HW,2013-10-18 20:06:00,
2013-10-18 16:07:00,69.5,50.6,29.82,North,0,2.0,3.4,51,0.00,,,0.00,WUHU216HW,2013-10-18 20:07:00,
2013-10-18 16:08:00,69.5,50.6,29.83,North,0,1.8,3.4,51,0.00,,,0.00,WUHU216HW,2013-10-18 20:08:00,
2013-10-18 16:09:00,69.5,51.1,29.83,North,351,1.0,3.4,52,0.00,,,0.00,WUHU216HW,2013-10-18 20:09:00,
2013-10-18 16:11:00,69.5,50.6,29.82,NNW,334,1.6,3.4,51,0.00,,,0.00,WUHU216HW,2013-10-18 20:11:00,
2013-10-18 16:12:00,69.5,50.6,29.82,NNW,342,1.2,3.4,51,0.00,,,0.00,WUHU216HW,2013-10-18 20:12:00,
2013-10-18 16:13:00,69.5,50.0,29.82,North,0,1.3,3.4,50,0.00,,,0.00,WUHU216HW,2013-10-18 20:13:00,
2013-10-18 16:14:00,69.5,50.6,29.82,WSW,248,2.5,3.4,51,0.00,,,0.00,WUHU216HW,2013-10-18 20:14:00,
2013-10-18 16:15:00,69.3,51.0,29.82,WNW,300,2.3,2.5,52,0.00,,,0.00,WUHU216HW,2013-10-18 20:15:00,
2013-10-18 16:17:00,69.1,50.2,29.82,North,0,2.0,3.4,51,0.00,,,0.00,WUHU216HW,2013-10-18 20:17:00,
2013-10-18 16:18:00,69.1,50.2,29.82,WNW,293,1.3,3.4,51,0.00,,,0.00,WUHU216HW,2013-10-18 20:18:00,
2013-10-18 16:19:00,69.1,50.8,29.82,NW,323,1.2,3.4,52,0.00,,,0.00,WUHU216HW,2013-10-18 20:19:00,
2013-10-18 16:23:00,69.1,49.8,29.82,North,10,4.7,6.7,50,0.00,,,0.00,WUHU216HW,2013-10-18 20:23:00,
2013-10-18 16:24:00,69.1,50.2,29.82,NNW,333,1.7,6.7,51,0.00,,,0.00,WUHU216HW,2013-10-18 20:24:00,
2013-10-18 16:25:00,69.1,50.2,29.82,NW,315,4.0,6.7,51,0.00,,,0.00,WUHU216HW,2013-10-18 20:25:00,
2013-10-18 16:29:00,69.1,49.8,29.82,WNW,293,4.0,6.7,50,0.00,,,0.00,WUHU216HW,2013-10-18 20:29:00,
2013-10-18 16:30:00,68.9,49.6,29.82,NW,312,2.9,6.7,50,0.00,,,0.00,WUHU216HW,2013-10-18 20:30:00,
2013-10-18 16:31:00,68.9,50.1,29.82,North,0,1.8,6.7,51,0.00,,,0.00,WUHU216HW,2013-10-18 20:31:00,
2013-10-18 16:34:00,68.8,50.4,29.82,South,180,1.1,4.0,52,0.00,,,0.00,WUHU216HW,2013-10-18 20:34:00,
2013-10-18 16:35:00,68.8,50.4,29.82,NW,315,1.1,4.0,52,0.00,,,0.00,WUHU216HW,2013-10-18 20:35:00,
2013-10-18 16:36:00,68.8,51.0,29.82,North,0,1.1,4.0,53,0.00,,,0.00,WUHU216HW,2013-10-18 20:36:00,
2013-10-18 16:37:00,68.8,51.0,29.82,North,0,2.2,4.0,53,0.00,,,0.00,WUHU216HW,2013-10-18 20:37:00,
2013-10-18 16:39:00,68.8,50.0,29.81,NNE,23,1.1,2.2,51,0.00,,,0.00,WUHU216HW,2013-10-18 20:39:00,
2013-10-18 16:41:00,68.8,50.4,29.81,North,0,4.3,4.3,52,0.00,,,0.00,WUHU216HW,2013-10-18 20:41:00,
2013-10-18 16:42:00,68.6,49.8,29.81,North,0,3.3,4.3,51,0.00,,,0.00,WUHU216HW,2013-10-18 20:42:00,
2013-10-18 16:43:00,68.6,48.7,29.81,ESE,113,4.0,4.3,49,0.00,,,0.00,WUHU216HW,2013-10-18 20:43:00,
2013-10-18 16:45:00,68.2,49.4,29.81,NNE,17,2.0,4.3,51,0.00,,,0.00,WUHU216HW,2013-10-18 20:45:00,
2013-10-18 16:46:00,68.2,49.4,29.81,NE,51,0.8,4.3,51,0.00,,,0.00,WUHU216HW,2013-10-18 20:46:00,
2013-10-18 16:48:00,68.2,49.4,29.81,NNE,23,3.8,4.3,51,0.00,,,0.00,WUHU216HW,2013-10-18 20:48:00,
2013-10-18 16:49:00,68.0,49.2,29.81,NNE,26,2.1,4.3,51,0.00,,,0.00,WUHU216HW,2013-10-18 20:49:00,
2013-10-18 16:50:00,68.0,48.8,29.81,NE,45,1.8,4.3,50,0.00,,,0.00,WUHU216HW,2013-10-18 20:50:00,
2013-10-18 16:51:00,68.0,49.2,29.81,NNE,28,1.3,4.0,51,0.00,,,0.00,WUHU216HW,2013-10-18 20:51:00,
2013-10-18 16:53:00,68.0,49.8,29.81,WSW,248,2.2,3.8,52,0.00,,,0.00,WUHU216HW,2013-10-18 20:53:00,
2013-10-18 16:54:00,68.0,50.2,29.81,West,278,1.8,3.8,53,0.00,,,0.00,WUHU216HW,2013-10-18 20:54:00,
2013-10-18 16:55:00,68.2,50.4,29.82,NNW,330,0.8,3.8,53,0.00,,,0.00,WUHU216HW,2013-10-18 20:55:00,
2013-10-18 16:56:00,68.4,51.0,29.81,NNW,338,0.4,3.8,54,0.00,,,0.00,WUHU216HW,2013-10-18 20:56:00,
2013-10-18 16:59:00,68.4,51.0,29.81,NNW,338,0.9,2.2,54,0.00,,,0.00,WUHU216HW,2013-10-18 20:59:00,
2013-10-18 17:00:00,68.4,51.0,29.81,NNW,338,0.9,2.2,54,0.00,,,0.00,WUHU216HW,2013-10-18 21:00:00,
2013-10-18 17:01:00,68.4,50.6,29.82,NNW,338,1.6,2.2,53,0.00,,,0.00,WUHU216HW,2013-10-18 21:01:00,
2013-10-18 17:02:00,68.4,50.6,29.82,WNW,293,1.1,2.2,53,0.00,,,0.00,WUHU216HW,2013-10-18 21:02:00,
2013-10-18 17:03:00,68.4,50.6,29.82,WNW,293,1.1,1.8,53,0.00,,,0.00,WUHU216HW,2013-10-18 21:03:00,
2013-10-18 17:05:00,68.4,50.6,29.82,East,90,2.7,2.7,53,0.00,,,0.00,WUHU216HW,2013-10-18 21:05:00,
2013-10-18 17:06:00,68.4,49.6,29.82,East,85,1.6,2.7,51,0.00,,,0.00,WUHU216HW,2013-10-18 21:06:00,
2013-10-18 17:08:00,68.2,49.0,29.81,NE,45,3.1,5.4,50,0.00,,,0.00,WUHU216HW,2013-10-18 21:08:00,
2013-10-18 17:09:00,68.2,49.0,29.81,NNE,23,1.6,5.4,50,0.00,,,0.00,WUHU216HW,2013-10-18 21:09:00,
2013-10-18 17:10:00,68.2,49.0,29.81,NNE,23,1.6,5.4,50,0.00,,,0.00,WUHU216HW,2013-10-18 21:10:00,
2013-10-18 17:11:00,68.2,49.4,29.81,NNE,16,1.1,5.4,51,0.00,,,0.00,WUHU216HW,2013-10-18 21:11:00,
2013-10-18 17:12:00,68.0,49.2,29.81,NW,326,0.6,5.4,51,0.00,,,0.00,WUHU216HW,2013-10-18 21:12:00,
2013-10-18 17:13:00,68.0,49.8,29.81,WSW,248,0.4,5.4,52,0.00,,,0.00,WUHU216HW,2013-10-18 21:13:00,
2013-10-18 17:15:00,68.0,49.2,29.81,NE,45,1.8,5.4,51,0.00,,,0.00,WUHU216HW,2013-10-18 21:15:00,
2013-10-18 17:17:00,67.9,48.6,29.81,NE,45,1.4,5.4,50,0.00,,,0.00,WUHU216HW,2013-10-18 21:17:00,
2013-10-18 17:20:00,67.7,49.4,29.81,West,270,1.1,2.5,52,0.00,,,0.00,WUHU216HW,2013-10-18 21:20:00,
2013-10-18 17:21:00,67.7,49.4,29.82,West,273,0.7,2.5,52,0.00,,,0.00,WUHU216HW,2013-10-18 21:21:00,
2013-10-18 17:22:00,67.7,50.0,29.81,WNW,293,0.4,2.5,53,0.00,,,0.00,WUHU216HW,2013-10-18 21:22:00,
2013-10-18 17:24:00,67.5,50.2,29.81,North,0,0.2,2.5,54,0.00,,,0.00,WUHU216HW,2013-10-18 21:24:00,
2013-10-18 17:26:00,67.5,50.8,29.82,NW,315,1.1,1.1,55,0.00,,,0.00,WUHU216HW,2013-10-18 21:26:00,
2013-10-18 17:27:00,67.5,50.8,29.82,NW,315,0.7,1.1,55,0.00,,,0.00,WUHU216HW,2013-10-18 21:27:00,
2013-10-18 17:28:00,67.5,50.8,29.82,NNW,338,1.8,1.8,55,0.00,,,0.00,WUHU216HW,2013-10-18 21:28:00,
2013-10-18 17:30:00,67.3,50.6,29.82,NNW,338,1.2,1.8,55,0.00,,,0.00,WUHU216HW,2013-10-18 21:30:00,
2013-10-18 17:32:00,67.3,50.6,29.82,NNW,338,0.0,1.8,55,0.00,,,0.00,WUHU216HW,2013-10-18 21:32:00,
2013-10-18 17:33:00,67.3,50.6,29.81,NW,315,0.4,1.8,55,0.00,,,0.00,WUHU216HW,2013-10-18 21:33:00,
2013-10-18 17:35:00,67.3,51.0,29.81,WNW,293,1.1,1.8,56,0.00,,,0.00,WUHU216HW,2013-10-18 21:35:00,
2013-10-18 17:37:00,67.3,51.0,29.81,NNW,338,0.4,1.8,56,0.00,,,0.00,WUHU216HW,2013-10-18 21:37:00,
2013-10-18 17:38:00,67.1,50.9,29.81,WNW,293,1.3,1.3,56,0.00,,,0.00,WUHU216HW,2013-10-18 21:38:00,
2013-10-18 17:39:00,67.1,50.9,29.81,WNW,303,1.2,1.3,56,0.00,,,0.00,WUHU216HW,2013-10-18 21:39:00,
2013-10-18 17:40:00,67.1,50.9,29.81,NW,315,0.9,1.3,56,0.00,,,0.00,WUHU216HW,2013-10-18 21:40:00,
2013-10-18 17:41:00,67.1,50.9,29.81,NW,315,0.4,1.3,56,0.00,,,0.00,WUHU216HW,2013-10-18 21:41:00,
2013-10-18 17:43:00,67.0,51.2,29.82,NW,315,0.6,1.3,57,0.00,,,0.00,WUHU216HW,2013-10-18 21:43:00,
2013-10-18 17:44:00,67.0,51.2,29.81,West,270,0.4,1.3,57,0.00,,,0.00,WUHU216HW,2013-10-18 21:44:00,
2013-10-18 17:45:00,67.0,51.2,29.82,West,270,0.4,1.3,57,0.00,,,0.00,WUHU216HW,2013-10-18 21:45:00,
2013-10-18 17:46:00,67.0,51.2,29.82,NNW,338,1.1,1.3,57,0.00,,,0.00,WUHU216HW,2013-10-18 21:46:00,
2013-10-18 17:49:00,66.8,51.0,29.82,North,0,0.0,1.1,57,0.00,,,0.00,WUHU216HW,2013-10-18 21:49:00,
2013-10-18 17:50:00,66.6,50.9,29.82,North,0,0.0,1.1,57,0.00,,,0.00,WUHU216HW,2013-10-18 21:50:00,
2013-10-18 17:51:00,66.6,50.9,29.82,NNW,338,1.1,1.1,57,0.00,,,0.00,WUHU216HW,2013-10-18 21:51:00,
2013-10-18 17:53:00,66.6,50.9,29.82,NNW,338,0.0,1.1,57,0.00,,,0.00,WUHU216HW,2013-10-18 21:53:00,
2013-10-18 17:54:00,66.6,51.4,29.82,NW,315,0.0,1.1,58,0.00,,,0.00,WUHU216HW,2013-10-18 21:54:00,
2013-10-18 17:56:00,66.4,50.8,29.82,NW,315,1.6,1.6,57,0.00,,,0.00,WUHU216HW,2013-10-18 21:56:00,
2013-10-18 17:57:00,66.4,50.8,29.81,NW,315,1.6,1.6,57,0.00,,,0.00,WUHU216HW,2013-10-18 21:57:00,
2013-10-18 17:58:00,66.4,50.8,29.81,NW,315,0.0,1.6,57,0.00,,,0.00,WUHU216HW,2013-10-18 21:58:00,
2013-10-18 17:59:00,66.4,51.2,29.81,NW,315,0.0,1.6,58,0.00,,,0.00,WUHU216HW,2013-10-18 21:59:00,
2013-10-18 18:01:00,66.2,51.0,29.81,WNW,293,1.3,1.6,58,0.00,,,0.00,WUHU216HW,2013-10-18 22:01:00,
2013-10-18 18:02:00,66.2,51.0,29.81,WNW,293,1.3,1.6,58,0.00,,,0.00,WUHU216HW,2013-10-18 22:02:00,
2013-10-18 18:03:00,66.1,50.9,29.81,NNW,338,0.4,1.6,58,0.00,,,0.00,WUHU216HW,2013-10-18 22:03:00,
2013-10-18 18:04:00,66.1,50.9,29.81,NNW,338,0.4,1.6,58,0.00,,,0.00,WUHU216HW,2013-10-18 22:04:00,
2013-10-18 18:06:00,65.9,51.2,29.81,NNW,338,0.0,1.3,59,0.00,,,0.00,WUHU216HW,2013-10-18 22:06:00,
2013-10-18 18:07:00,65.9,51.2,29.81,NNW,338,0.0,1.3,59,0.00,,,0.00,WUHU216HW,2013-10-18 22:07:00,
2013-10-18 18:08:00,65.9,51.2,29.81,NW,315,0.0,1.3,59,0.00,,,0.00,WUHU216HW,2013-10-18 22:08:00,
2013-10-18 18:09:00,65.9,51.2,29.81,NW,315,0.0,1.3,59,0.00,,,0.00,WUHU216HW,2013-10-18 22:09:00,
2013-10-18 18:10:00,65.7,50.5,29.81,NW,315,0.4,1.3,58,0.00,,,0.00,WUHU216HW,2013-10-18 22:10:00,
2013-10-18 18:11:00,65.7,50.5,29.81,NW,315,0.4,1.1,58,0.00,,,0.00,WUHU216HW,2013-10-18 22:11:00,
2013-10-18 18:12:00,65.5,50.3,29.81,WNW,293,1.1,1.1,58,0.00,,,0.00,WUHU216HW,2013-10-18 22:12:00,
2013-10-18 18:13:00,65.5,50.3,29.82,WNW,301,0.9,1.1,58,0.00,,,0.00,WUHU216HW,2013-10-18 22:13:00,
2013-10-18 18:14:00,65.5,50.3,29.82,NW,315,0.7,1.1,58,0.00,,,0.00,WUHU216HW,2013-10-18 22:14:00,
2013-10-18 18:16:00,65.3,50.1,29.81,WNW,293,1.1,1.8,58,0.00,,,0.00,WUHU216HW,2013-10-18 22:16:00,
2013-10-18 18:17:00,65.3,50.1,29.81,WNW,293,0.4,1.8,58,0.00,,,0.00,WUHU216HW,2013-10-18 22:17:00,
2013-10-18 18:18:00,65.3,50.7,29.81,NNW,338,1.1,1.8,59,0.00,,,0.00,WUHU216HW,2013-10-18 22:18:00,
2013-10-18 18:19:00,65.2,50.0,29.81,NNW,338,0.8,1.8,58,0.00,,,0.00,WUHU216HW,2013-10-18 22:19:00,
2013-10-18 18:21:00,65.2,50.0,29.81,West,270,1.8,1.8,58,0.00,,,0.00,WUHU216HW,2013-10-18 22:21:00,
2013-10-18 18:23:00,65.0,49.8,29.81,NW,315,1.1,1.8,58,0.00,,,0.00,WUHU216HW,2013-10-18 22:23:00,
2013-10-18 18:24:00,64.8,49.6,29.81,NW,315,1.1,1.8,58,0.00,,,0.00,WUHU216HW,2013-10-18 22:24:00,
2013-10-18 18:25:00,64.8,49.6,29.82,NNE,23,0.2,1.8,58,0.00,,,0.00,WUHU216HW,2013-10-18 22:25:00,
2013-10-18 18:26:00,64.8,49.6,29.81,NW,315,1.8,1.8,58,0.00,,,0.00,WUHU216HW,2013-10-18 22:26:00,
2013-10-18 18:29:00,64.4,49.8,29.82,NNW,338,0.4,1.8,59,0.00,,,0.00,WUHU216HW,2013-10-18 22:29:00,
2013-10-18 18:30:00,64.3,49.6,29.82,NNW,338,0.4,1.8,59,0.00,,,0.00,WUHU216HW,2013-10-18 22:30:00,
2013-10-18 18:31:00,64.3,49.6,29.82,NNW,338,0.0,1.8,59,0.00,,,0.00,WUHU216HW,2013-10-18 22:31:00,
2013-10-18 18:32:00,64.1,49.4,29.82,North,0,0.0,1.8,59,0.00,,,0.00,WUHU216HW,2013-10-18 22:32:00,
2013-10-18 18:35:00,63.7,49.6,29.82,North,0,0.0,1.8,60,0.00,,,0.00,WUHU216HW,2013-10-18 22:35:00,
2013-10-18 18:36:00,63.5,49.4,29.82,North,0,0.0,0.4,60,0.00,,,0.00,WUHU216HW,2013-10-18 22:36:00,
2013-10-18 18:37:00,63.4,49.7,29.82,North,0,0.0,0.4,61,0.00,,,0.00,WUHU216HW,2013-10-18 22:37:00,
2013-10-18 18:38:00,63.4,49.7,29.82,North,0,0.0,0.4,61,0.00,,,0.00,WUHU216HW,2013-10-18 22:38:00,
2013-10-18 18:40:00,63.0,49.8,29.81,North,0,0.0,0.0,62,0.00,,,0.00,WUHU216HW,2013-10-18 22:40:00,
2013-10-18 18:41:00,62.8,49.6,29.81,North,0,0.0,0.0,62,0.00,,,0.00,WUHU216HW,2013-10-18 22:41:00,
2013-10-18 18:42:00,62.8,49.6,29.81,North,0,0.0,0.0,62,0.00,,,0.00,WUHU216HW,2013-10-18 22:42:00,
2013-10-18 18:43:00,62.5,49.7,29.81,North,0,0.0,0.0,63,0.00,,,0.00,WUHU216HW,2013-10-18 22:43:00,
2013-10-18 18:47:00,62.1,49.8,29.81,North,0,0.0,0.0,64,0.00,,,0.00,WUHU216HW,2013-10-18 22:47:00,
2013-10-18 18:48:00,61.7,49.4,29.82,North,0,0.0,0.0,64,0.00,,,0.00,WUHU216HW,2013-10-18 22:48:00,
2013-10-18 18:49:00,61.7,49.4,29.82,North,0,0.0,0.0,64,0.00,,,0.00,WUHU216HW,2013-10-18 22:49:00,
2013-10-18 18:50:00,61.6,49.7,29.82,North,0,0.0,0.0,65,0.00,,,0.00,WUHU216HW,2013-10-18 22:50:00,
2013-10-18 18:52:00,61.2,49.4,29.81,North,0,0.0,0.0,65,0.00,,,0.00,WUHU216HW,2013-10-18 22:52:00,
2013-10-18 18:53:00,61.0,49.2,29.82,North,0,0.0,0.0,65,0.00,,,0.00,WUHU216HW,2013-10-18 22:53:00,
2013-10-18 18:54:00,60.8,49.1,29.82,North,0,0.0,0.0,65,0.00,,,0.00,WUHU216HW,2013-10-18 22:54:00,
2013-10-18 18:55:00,60.8,49.1,29.82,North,0,0.0,0.0,65,0.00,,,0.00,WUHU216HW,2013-10-18 22:55:00,
2013-10-18 18:57:00,60.5,48.7,29.82,North,0,0.0,0.0,65,0.00,,,0.00,WUHU216HW,2013-10-18 22:57:00,
2013-10-18 18:58:00,60.5,48.7,29.82,North,0,0.0,0.0,65,0.00,,,0.00,WUHU216HW,2013-10-18 22:58:00,
2013-10-18 18:59:00,60.3,48.5,29.82,North,0,0.0,0.0,65,0.00,,,0.00,WUHU216HW,2013-10-18 22:59:00,
2013-10-18 19:00:00,60.1,48.3,29.82,North,0,0.0,0.0,65,0.00,,,0.00,WUHU216HW,2013-10-18 23:00:00,
2013-10-18 19:02:00,59.9,48.2,29.82,North,0,0.0,0.0,65,0.00,,,0.00,WUHU216HW,2013-10-18 23:02:00,
2013-10-18 19:04:00,59.8,48.4,29.82,North,0,0.0,0.0,66,0.00,,,0.00,WUHU216HW,2013-10-18 23:04:00,
2013-10-18 19:05:00,59.8,48.4,29.82,North,0,0.0,0.0,66,0.00,,,0.00,WUHU216HW,2013-10-18 23:05:00,
2013-10-18 19:07:00,59.4,48.4,29.82,North,0,0.0,0.0,67,0.00,,,0.00,WUHU216HW,2013-10-18 23:07:00,
2013-10-18 19:08:00,59.4,48.4,29.82,North,0,0.0,0.0,67,0.00,,,0.00,WUHU216HW,2013-10-18 23:08:00,
2013-10-18 19:09:00,59.2,48.2,29.81,North,0,0.0,0.0,67,0.00,,,0.00,WUHU216HW,2013-10-18 23:09:00,
2013-10-18 19:10:00,59.0,48.1,29.82,North,0,0.0,0.0,67,0.00,,,0.00,WUHU216HW,2013-10-18 23:10:00,
2013-10-18 19:11:00,58.7,48.2,29.82,North,0,0.0,0.0,68,0.00,,,0.00,WUHU216HW,2013-10-18 23:11:00,
2013-10-18 19:12:00,58.7,48.2,29.82,North,0,0.0,0.0,68,0.00,,,0.00,WUHU216HW,2013-10-18 23:12:00,
2013-10-18 19:13:00,58.5,48.0,29.82,ESE,113,0.0,0.0,68,0.00,,,0.00,WUHU216HW,2013-10-18 23:13:00,
2013-10-18 19:15:00,58.3,47.8,29.82,ESE,113,0.4,0.4,68,0.00,,,0.00,WUHU216HW,2013-10-18 23:15:00,
2013-10-18 19:16:00,58.3,48.2,29.82,ESE,113,0.4,0.4,69,0.00,,,0.00,WUHU216HW,2013-10-18 23:16:00,
2013-10-18 19:17:00,58.1,48.0,29.82,ESE,113,0.0,0.4,69,0.00,,,0.00,WUHU216HW,2013-10-18 23:17:00,
2013-10-18 19:18:00,58.0,47.9,29.82,ESE,113,0.0,0.4,69,0.00,,,0.00,WUHU216HW,2013-10-18 23:18:00,
2013-10-18 19:19:00,58.0,47.9,29.81,ESE,113,0.0,0.4,69,0.00,,,0.00,WUHU216HW,2013-10-18 23:19:00,
2013-10-18 19:20:00,57.8,47.7,29.82,ESE,113,0.0,0.4,69,0.00,,,0.00,WUHU216HW,2013-10-18 23:20:00,
2013-10-18 19:22:00,57.6,47.5,29.81,ESE,113,0.0,0.4,69,0.00,,,0.00,WUHU216HW,2013-10-18 23:22:00,
2013-10-18 19:23:00,57.4,47.7,29.81,ESE,113,0.0,0.4,70,0.00,,,0.00,WUHU216HW,2013-10-18 23:23:00,
2013-10-18 19:24:00,57.2,47.5,29.82,ESE,113,0.0,0.4,70,0.00,,,0.00,WUHU216HW,2013-10-18 23:24:00,
2013-10-18 19:25:00,57.2,47.5,29.81,ESE,113,0.0,0.0,70,0.00,,,0.00,WUHU216HW,2013-10-18 23:25:00,
2013-10-18 19:27:00,57.1,47.3,29.81,ESE,113,0.0,0.0,70,0.00,,,0.00,WUHU216HW,2013-10-18 23:27:00,
2013-10-18 19:28:00,56.9,47.5,29.81,ESE,113,0.0,0.0,71,0.00,,,0.00,WUHU216HW,2013-10-18 23:28:00,
2013-10-18 19:29:00,56.9,47.5,29.81,ESE,113,0.0,0.0,71,0.00,,,0.00,WUHU216HW,2013-10-18 23:29:00,
2013-10-18 19:30:00,56.7,47.4,29.81,ESE,113,0.0,0.0,71,0.00,,,0.00,WUHU216HW,2013-10-18 23:30:00,
2013-10-18 19:31:00,56.5,47.3,29.81,ESE,113,0.0,0.0,71,0.00,,,0.00,WUHU216HW,2013-10-18 23:31:00,
2013-10-18 19:32:00,56.5,47.6,29.81,ESE,113,0.0,0.0,72,0.00,,,0.00,WUHU216HW,2013-10-18 23:32:00,
2013-10-18 19:33:00,56.3,47.4,29.81,ESE,113,0.0,0.0,72,0.00,,,0.00,WUHU216HW,2013-10-18 23:33:00,
2013-10-18 19:34:00,56.3,47.4,29.82,ESE,113,0.0,0.0,72,0.00,,,0.00,WUHU216HW,2013-10-18 23:34:00,
2013-10-18 19:36:00,56.2,47.6,29.81,ESE,113,0.0,0.0,73,0.00,,,0.00,WUHU216HW,2013-10-18 23:36:00,
2013-10-18 19:37:00,56.0,47.4,29.82,ESE,113,0.0,0.0,73,0.00,,,0.00,WUHU216HW,2013-10-18 23:37:00,
2013-10-18 19:38:00,56.0,47.4,29.82,ESE,113,0.0,0.0,73,0.00,,,0.00,WUHU216HW,2013-10-18 23:38:00,
2013-10-18 19:39:00,55.8,47.3,29.82,ESE,113,0.0,0.0,73,0.00,,,0.00,WUHU216HW,2013-10-18 23:39:00,
2013-10-18 19:40:00,55.8,47.3,29.82,ESE,113,0.0,0.0,73,0.00,,,0.00,WUHU216HW,2013-10-18 23:40:00,
2013-10-18 19:41:00,55.8,47.3,29.82,ESE,113,0.0,0.0,73,0.00,,,0.00,WUHU216HW,2013-10-18 23:41:00,
2013-10-18 19:43:00,55.4,47.3,29.82,ESE,113,0.0,0.0,74,0.00,,,0.00,WUHU216HW,2013-10-18 23:43:00,
2013-10-18 19:44:00,55.4,47.3,29.82,ESE,113,0.0,0.0,74,0.00,,,0.00,WUHU216HW,2013-10-18 23:44:00,
2013-10-18 19:46:00,55.3,47.4,29.82,ESE,113,0.0,0.0,75,0.00,,,0.00,WUHU216HW,2013-10-18 23:46:00,
2013-10-18 19:47:00,55.3,47.4,29.82,ESE,113,0.0,0.0,75,0.00,,,0.00,WUHU216HW,2013-10-18 23:47:00,
2013-10-18 19:49:00,55.1,47.3,29.82,ESE,113,0.0,0.0,75,0.00,,,0.00,WUHU216HW,2013-10-18 23:49:00,
2013-10-18 19:50:00,55.1,47.3,29.82,ESE,113,0.0,0.0,75,0.00,,,0.00,WUHU216HW,2013-10-18 23:50:00,
2013-10-18 19:51:00,55.1,47.3,29.82,ESE,113,0.0,0.0,75,0.00,,,0.00,WUHU216HW,2013-10-18 23:51:00,
2013-10-18 19:55:00,54.7,47.3,29.82,ESE,113,0.0,0.0,76,0.00,,,0.00,WUHU216HW,2013-10-18 23:55:00,
2013-10-18 19:57:00,54.5,47.1,29.82,ESE,113,0.0,0.0,76,0.00,,,0.00,WUHU216HW,2013-10-18 23:57:00,
2013-10-18 19:58:00,54.4,46.6,29.82,ESE,113,0.0,0.0,75,0.00,,,0.00,WUHU216HW,2013-10-18 23:58:00,
2013-10-18 19:59:00,54.4,46.6,29.82,ESE,113,0.0,0.0,75,0.00,,,0.00,WUHU216HW,2013-10-18 23:59:00,
2013-10-18 20:00:00,54.2,46.8,29.82,ESE,113,0.0,0.0,76,0.00,,,0.00,WUHU216HW,2013-10-19 00:00:00,
2013-10-18 20:01:00,54.2,46.8,29.82,ESE,113,0.0,0.0,76,0.00,,,0.00,WUHU216HW,2013-10-19 00:01:00,
2013-10-18 20:02:00,54.2,46.8,29.82,ESE,113,0.0,0.0,76,0.00,,,0.00,WUHU216HW,2013-10-19 00:02:00,
2013-10-18 20:04:00,54.0,47.0,29.82,ESE,113,0.4,0.4,77,0.00,,,0.00,WUHU216HW,2013-10-19 00:04:00,
2013-10-18 20:05:00,54.0,47.0,29.82,ESE,113,0.4,0.4,77,0.00,,,0.00,WUHU216HW,2013-10-19 00:05:00,
2013-10-18 20:06:00,53.8,46.8,29.82,ESE,113,0.0,0.4,77,0.00,,,0.00,WUHU216HW,2013-10-19 00:06:00,
2013-10-18 20:07:00,53.8,46.8,29.82,ESE,113,0.0,0.4,77,0.00,,,0.00,WUHU216HW,2013-10-19 00:07:00,
2013-10-18 20:08:00,53.6,46.6,29.82,ESE,113,0.0,0.4,77,0.00,,,0.00,WUHU216HW,2013-10-19 00:08:00,
2013-10-18 20:10:00,53.6,46.6,29.82,ESE,113,0.0,0.4,77,0.00,,,0.00,WUHU216HW,2013-10-19 00:10:00,
2013-10-18 20:11:00,53.6,46.6,29.82,ESE,113,0.0,0.4,77,0.00,,,0.00,WUHU216HW,2013-10-19 00:11:00,
2013-10-18 20:12:00,53.6,46.6,29.82,ESE,113,0.0,0.4,77,0.00,,,0.00,WUHU216HW,2013-10-19 00:12:00,
2013-10-18 20:13:00,53.5,46.8,29.83,ESE,113,0.0,0.4,78,0.00,,,0.00,WUHU216HW,2013-10-19 00:13:00,
2013-10-18 20:14:00,53.5,46.8,29.82,ESE,113,0.0,0.0,78,0.00,,,0.00,WUHU216HW,2013-10-19 00:14:00,
2013-10-18 20:16:00,53.3,46.6,29.82,ESE,113,0.0,0.0,78,0.00,,,0.00,WUHU216HW,2013-10-19 00:16:00,
2013-10-18 20:17:00,53.3,46.6,29.82,ESE,113,0.0,0.0,78,0.00,,,0.00,WUHU216HW,2013-10-19 00:17:00,
2013-10-18 20:18:00,53.1,46.4,29.82,ESE,113,0.0,0.0,78,0.00,,,0.00,WUHU216HW,2013-10-19 00:18:00,
2013-10-18 20:19:00,53.1,46.4,29.82,ESE,113,0.0,0.0,78,0.00,,,0.00,WUHU216HW,2013-10-19 00:19:00,
2013-10-18 20:22:00,52.9,46.3,29.82,ESE,113,0.0,0.0,78,0.00,,,0.00,WUHU216HW,2013-10-19 00:22:00,
2013-10-18 20:23:00,52.9,46.6,29.82,ESE,113,0.0,0.0,79,0.00,,,0.00,WUHU216HW,2013-10-19 00:23:00,
2013-10-18 20:24:00,52.7,46.1,29.82,ESE,113,0.0,0.0,78,0.00,,,0.00,WUHU216HW,2013-10-19 00:24:00,
2013-10-18 20:26:00,52.7,46.4,29.82,ESE,113,0.0,0.0,79,0.00,,,0.00,WUHU216HW,2013-10-19 00:26:00,
2013-10-18 20:28:00,52.6,46.6,29.82,ESE,113,0.0,0.0,80,0.00,,,0.00,WUHU216HW,2013-10-19 00:28:00,
2013-10-18 20:29:00,52.6,46.6,29.82,ESE,113,0.0,0.0,80,0.00,,,0.00,WUHU216HW,2013-10-19 00:29:00,
2013-10-18 20:30:00,52.6,46.6,29.83,ESE,113,0.0,0.0,80,0.00,,,0.00,WUHU216HW,2013-10-19 00:30:00,
2013-10-18 20:31:00,52.6,46.6,29.83,WSW,248,1.3,1.3,80,0.00,,,0.00,WUHU216HW,2013-10-19 00:31:00,
2013-10-18 20:34:00,52.6,46.6,29.83,WSW,248,0.4,1.3,80,0.00,,,0.00,WUHU216HW,2013-10-19 00:34:00,
2013-10-18 20:35:00,52.6,46.6,29.83,North,0,0.0,1.3,80,0.00,,,0.00,WUHU216HW,2013-10-19 00:35:00,
2013-10-18 20:36:00,52.6,46.6,29.83,North,0,0.0,1.3,80,0.00,,,0.00,WUHU216HW,2013-10-19 00:36:00,
2013-10-18 20:37:00,52.4,46.4,29.83,North,0,0.0,1.3,80,0.00,,,0.00,WUHU216HW,2013-10-19 00:37:00,
2013-10-18 20:39:00,52.4,46.7,29.83,North,0,0.0,1.3,81,0.00,,,0.00,WUHU216HW,2013-10-19 00:39:00,
2013-10-18 20:40:00,52.4,46.7,29.83,North,0,0.0,1.3,81,0.00,,,0.00,WUHU216HW,2013-10-19 00:40:00,
2013-10-18 20:41:00,52.4,46.7,29.83,North,0,0.0,0.4,81,0.00,,,0.00,WUHU216HW,2013-10-19 00:41:00,
2013-10-18 20:42:00,52.2,46.5,29.83,North,0,0.0,0.0,81,0.00,,,0.00,WUHU216HW,2013-10-19 00:42:00,
2013-10-18 20:44:00,52.2,46.5,29.83,North,0,0.0,0.0,81,0.00,,,0.00,WUHU216HW,2013-10-19 00:44:00,
2013-10-18 20:45:00,52.2,46.5,29.83,North,0,0.0,0.0,81,0.00,,,0.00,WUHU216HW,2013-10-19 00:45:00,
2013-10-18 20:46:00,52.2,46.5,29.83,North,0,0.0,0.0,81,0.00,,,0.00,WUHU216HW,2013-10-19 00:46:00,
2013-10-18 20:48:00,52.0,46.4,29.83,North,0,0.0,0.0,81,0.00,,,0.00,WUHU216HW,2013-10-19 00:48:00,
2013-10-18 20:50:00,51.8,46.5,29.83,North,0,0.0,0.0,82,0.00,,,0.00,WUHU216HW,2013-10-19 00:50:00,
2013-10-18 20:51:00,51.8,46.5,29.83,North,0,0.0,0.0,82,0.00,,,0.00,WUHU216HW,2013-10-19 00:51:00,
2013-10-18 20:52:00,51.8,46.5,29.83,North,0,0.0,0.0,82,0.00,,,0.00,WUHU216HW,2013-10-19 00:52:00,
2013-10-18 20:53:00,51.7,46.4,29.83,North,0,0.0,0.0,82,0.00,,,0.00,WUHU216HW,2013-10-19 00:53:00,
2013-10-18 20:54:00,51.7,46.4,29.83,North,0,0.0,0.0,82,0.00,,,0.00,WUHU216HW,2013-10-19 00:54:00,
2013-10-18 20:55:00,51.7,46.4,29.83,North,0,0.0,0.0,82,0.00,,,0.00,WUHU216HW,2013-10-19 00:55:00,
2013-10-18 20:56:00,51.5,46.2,29.83,NNE,23,0.2,0.2,82,0.00,,,0.00,WUHU216HW,2013-10-19 00:56:00,
2013-10-18 20:58:00,51.5,46.2,29.83,NNE,23,0.0,0.2,82,0.00,,,0.00,WUHU216HW,2013-10-19 00:58:00,
2013-10-18 21:00:00,51.3,46.0,29.83,NNE,23,0.0,0.2,82,0.00,,,0.00,WUHU216HW,2013-10-19 01:00:00,
2013-10-18 21:01:00,51.3,46.0,29.83,NNE,23,0.0,0.2,82,0.00,,,0.00,WUHU216HW,2013-10-19 01:01:00,
2013-10-18 21:02:00,51.3,46.0,29.83,NNE,23,0.0,0.2,82,0.00,,,0.00,WUHU216HW,2013-10-19 01:02:00,
2013-10-18 21:04:00,51.1,45.8,29.84,NNE,23,0.0,0.2,82,0.00,,,0.00,WUHU216HW,2013-10-19 01:04:00,
2013-10-18 21:07:00,51.1,45.8,29.84,NNE,23,0.0,0.0,82,0.00,,,0.00,WUHU216HW,2013-10-19 01:07:00,
2013-10-18 21:08:00,51.1,46.1,29.84,NNE,23,0.0,0.0,83,0.00,,,0.00,WUHU216HW,2013-10-19 01:08:00,
2013-10-18 21:09:00,51.1,46.1,29.84,NNE,23,0.0,0.0,83,0.00,,,0.00,WUHU216HW,2013-10-19 01:09:00,
2013-10-18 21:10:00,50.9,45.9,29.84,NNE,23,0.0,0.0,83,0.00,,,0.00,WUHU216HW,2013-10-19 01:10:00,
2013-10-18 21:12:00,50.9,45.9,29.84,NNE,23,0.0,0.0,83,0.00,,,0.00,WUHU216HW,2013-10-19 01:12:00,
2013-10-18 21:13:00,50.9,45.9,29.83,NNE,23,0.0,0.0,83,0.00,,,0.00,WUHU216HW,2013-10-19 01:13:00,
2013-10-18 21:14:00,50.9,45.9,29.83,ESE,113,0.0,0.0,83,0.00,,,0.00,WUHU216HW,2013-10-19 01:14:00,
2013-10-18 21:15:00,50.8,45.7,29.83,ESE,113,0.0,0.0,83,0.00,,,0.00,WUHU216HW,2013-10-19 01:15:00,
2013-10-18 21:17:00,50.8,45.7,29.84,ESE,113,0.0,0.0,83,0.00,,,0.00,WUHU216HW,2013-10-19 01:17:00,
2013-10-18 21:18:00,50.8,45.7,29.84,ESE,113,0.0,0.0,83,0.00,,,0.00,WUHU216HW,2013-10-19 01:18:00,
2013-10-18 21:19:00,50.8,45.7,29.84,ESE,113,0.0,0.0,83,0.00,,,0.00,WUHU216HW,2013-10-19 01:19:00,
2013-10-18 21:20:00,50.8,45.7,29.84,ESE,113,0.0,0.0,83,0.00,,,0.00,WUHU216HW,2013-10-19 01:20:00,
2013-10-18 21:21:00,50.8,46.1,29.84,ESE,113,0.0,0.0,84,0.00,,,0.00,WUHU216HW,2013-10-19 01:21:00,
2013-10-18 21:23:00,50.8,46.1,29.84,ESE,113,0.0,0.0,84,0.00,,,0.00,WUHU216HW,2013-10-19 01:23:00,
2013-10-18 21:24:00,50.6,45.9,29.84,ESE,113,0.0,0.0,84,0.00,,,0.00,WUHU216HW,2013-10-19 01:24:00,
2013-10-18 21:26:00,50.6,45.9,29.84,ESE,113,0.0,0.0,84,0.00,,,0.00,WUHU216HW,2013-10-19 01:26:00,
2013-10-18 21:28:00,50.6,45.9,29.84,ESE,113,0.0,0.0,84,0.00,,,0.00,WUHU216HW,2013-10-19 01:28:00,
2013-10-18 21:29:00,50.6,45.9,29.84,ESE,113,0.0,0.0,84,0.00,,,0.00,WUHU216HW,2013-10-19 01:29:00,
2013-10-18 21:31:00,50.4,45.7,29.84,ESE,113,0.0,0.0,84,0.00,,,0.00,WUHU216HW,2013-10-19 01:31:00,
2013-10-18 21:33:00,50.4,45.7,29.84,ESE,113,0.0,0.0,84,0.00,,,0.00,WUHU216HW,2013-10-19 01:33:00,
2013-10-18 21:34:00,50.4,45.7,29.84,ESE,113,0.0,0.0,84,0.00,,,0.00,WUHU216HW,2013-10-19 01:34:00,
2013-10-18 21:35:00,50.4,45.7,29.84,ESE,113,0.0,0.0,84,0.00,,,0.00,WUHU216HW,2013-10-19 01:35:00,
2013-10-18 21:36:00,50.2,45.6,29.84,ESE,113,0.0,0.0,84,0.00,,,0.00,WUHU216HW,2013-10-19 01:36:00,
2013-10-18 21:38:00,50.2,45.6,29.84,ESE,113,0.0,0.0,84,0.00,,,0.00,WUHU216HW,2013-10-19 01:38:00,
2013-10-18 21:40:00,50.2,45.6,29.84,ESE,113,0.0,0.0,84,0.00,,,0.00,WUHU216HW,2013-10-19 01:40:00,
2013-10-18 21:41:00,50.2,45.8,29.84,ESE,113,0.0,0.0,85,0.00,,,0.00,WUHU216HW,2013-10-19 01:41:00,
2013-10-18 21:42:00,50.2,45.8,29.84,ESE,113,0.0,0.0,85,0.00,,,0.00,WUHU216HW,2013-10-19 01:42:00,
2013-10-18 21:44:00,50.2,45.8,29.84,ESE,113,0.0,0.0,85,0.00,,,0.00,WUHU216HW,2013-10-19 01:44:00,
2013-10-18 21:45:00,50.2,45.8,29.84,ESE,113,0.0,0.0,85,0.00,,,0.00,WUHU216HW,2013-10-19 01:45:00,
2013-10-18 21:46:00,50.2,45.8,29.84,ESE,113,0.0,0.0,85,0.00,,,0.00,WUHU216HW,2013-10-19 01:46:00,
2013-10-18 21:47:00,50.2,46.1,29.84,ESE,113,0.0,0.0,86,0.00,,,0.00,WUHU216HW,2013-10-19 01:47:00,
2013-10-18 21:48:00,50.2,46.1,29.84,ESE,113,0.0,0.0,86,0.00,,,0.00,WUHU216HW,2013-10-19 01:48:00,
2013-10-18 21:49:00,50.2,46.1,29.84,ESE,113,0.0,0.0,86,0.00,,,0.00,WUHU216HW,2013-10-19 01:49:00,
2013-10-18 21:51:00,50.2,46.1,29.84,ESE,113,0.0,0.0,86,0.00,,,0.00,WUHU216HW,2013-10-19 01:51:00,
2013-10-18 21:52:00,50.2,46.1,29.84,ESE,113,0.0,0.0,86,0.00,,,0.00,WUHU216HW,2013-10-19 01:52:00,
2013-10-18 21:54:00,50.2,46.1,29.84,ESE,113,0.0,0.0,86,0.00,,,0.00,WUHU216HW,2013-10-19 01:54:00,
2013-10-18 21:55:00,50.2,46.1,29.84,ESE,113,0.0,0.0,86,0.00,,,0.00,WUHU216HW,2013-10-19 01:55:00,
2013-10-18 21:56:00,50.0,45.9,29.84,ESE,113,0.0,0.0,86,0.00,,,0.00,WUHU216HW,2013-10-19 01:56:00,
2013-10-18 21:59:00,50.0,45.9,29.84,ESE,113,0.0,0.0,86,0.00,,,0.00,WUHU216HW,2013-10-19 01:59:00,
2013-10-18 22:00:00,50.0,45.9,29.84,ESE,113,0.0,0.0,86,0.00,,,0.00,WUHU216HW,2013-10-19 02:00:00,
2013-10-18 22:02:00,50.0,45.9,29.84,ESE,113,0.0,0.0,86,0.00,,,0.00,WUHU216HW,2013-10-19 02:02:00,
2013-10-18 22:04:00,49.9,45.8,29.84,ESE,113,0.0,0.0,86,0.00,,,0.00,WUHU216HW,2013-10-19 02:04:00,
2013-10-18 22:06:00,49.9,45.8,29.84,ESE,113,0.0,0.0,86,0.00,,,0.00,WUHU216HW,2013-10-19 02:06:00,
2013-10-18 22:08:00,49.9,45.8,29.84,ESE,113,0.0,0.0,86,0.00,,,0.00,WUHU216HW,2013-10-19 02:08:00,
2013-10-18 22:09:00,49.7,45.6,29.84,ESE,113,0.0,0.0,86,0.00,,,0.00,WUHU216HW,2013-10-19 02:09:00,
2013-10-18 22:11:00,49.7,45.6,29.85,ESE,113,0.0,0.0,86,0.00,,,0.00,WUHU216HW,2013-10-19 02:11:00,
2013-10-18 22:12:00,49.7,45.6,29.85,ESE,113,0.0,0.0,86,0.00,,,0.00,WUHU216HW,2013-10-19 02:12:00,
2013-10-18 22:13:00,49.5,45.1,29.85,ESE,113,0.0,0.0,85,0.00,,,0.00,WUHU216HW,2013-10-19 02:13:00,
2013-10-18 22:14:00,49.5,45.1,29.85,ESE,113,0.0,0.0,85,0.00,,,0.00,WUHU216HW,2013-10-19 02:14:00,
2013-10-18 22:15:00,49.5,45.1,29.85,ESE,113,0.0,0.0,85,0.00,,,0.00,WUHU216HW,2013-10-19 02:15:00,
2013-10-18 22:17:00,49.3,44.9,29.85,ESE,113,0.0,0.0,85,0.00,,,0.00,WUHU216HW,2013-10-19 02:17:00,
2013-10-18 22:19:00,49.3,44.9,29.85,ESE,113,0.0,0.0,85,0.00,,,0.00,WUHU216HW,2013-10-19 02:19:00,
2013-10-18 22:22:00,49.3,44.9,29.85,ESE,113,0.0,0.0,85,0.00,,,0.00,WUHU216HW,2013-10-19 02:22:00,
2013-10-18 22:23:00,49.3,44.9,29.85,ESE,113,0.0,0.0,85,0.00,,,0.00,WUHU216HW,2013-10-19 02:23:00,
2013-10-18 22:25:00,49.3,44.9,29.85,ESE,113,0.0,0.0,85,0.00,,,0.00,WUHU216HW,2013-10-19 02:25:00,
2013-10-18 22:26:00,49.3,44.9,29.85,ESE,113,0.4,0.4,85,0.00,,,0.00,WUHU216HW,2013-10-19 02:26:00,
2013-10-18 22:27:00,49.3,44.9,29.85,ESE,113,0.4,0.4,85,0.00,,,0.00,WUHU216HW,2013-10-19 02:27:00,
2013-10-18 22:28:00,49.3,44.9,29.85,ESE,113,0.4,0.4,85,0.00,,,0.00,WUHU216HW,2013-10-19 02:28:00,
2013-10-18 22:29:00,49.3,44.9,29.85,ESE,113,0.0,0.4,85,0.00,,,0.00,WUHU216HW,2013-10-19 02:29:00,
2013-10-18 22:31:00,49.3,44.9,29.85,ESE,113,0.0,0.4,85,0.00,,,0.00,WUHU216HW,2013-10-19 02:31:00,
2013-10-18 22:32:00,49.3,44.9,29.85,ESE,113,0.0,0.4,85,0.00,,,0.00,WUHU216HW,2013-10-19 02:32:00,
2013-10-18 22:33:00,49.1,44.8,29.85,ESE,113,0.0,0.4,85,0.00,,,0.00,WUHU216HW,2013-10-19 02:33:00,
2013-10-18 22:34:00,49.1,44.8,29.85,ESE,113,0.0,0.4,85,0.00,,,0.00,WUHU216HW,2013-10-19 02:34:00,
2013-10-18 22:35:00,49.1,44.8,29.85,ESE,113,0.0,0.4,85,0.00,,,0.00,WUHU216HW,2013-10-19 02:35:00,
2013-10-18 22:36:00,49.1,44.8,29.85,ESE,113,0.0,0.4,85,0.00,,,0.00,WUHU216HW,2013-10-19 02:36:00,
2013-10-18 22:37:00,49.0,44.7,29.85,ESE,113,0.0,0.0,85,0.00,,,0.00,WUHU216HW,2013-10-19 02:37:00,
2013-10-18 22:39:00,49.0,44.7,29.85,ESE,113,0.0,0.0,85,0.00,,,0.00,WUHU216HW,2013-10-19 02:39:00,
2013-10-18 22:40:00,49.0,44.9,29.85,ESE,113,0.0,0.0,86,0.00,,,0.00,WUHU216HW,2013-10-19 02:40:00,
2013-10-18 22:41:00,49.0,44.9,29.85,ESE,113,0.0,0.0,86,0.00,,,0.00,WUHU216HW,2013-10-19 02:41:00,
2013-10-18 22:44:00,48.8,44.7,29.85,ESE,113,0.0,0.0,86,0.00,,,0.00,WUHU216HW,2013-10-19 02:44:00,
2013-10-18 22:45:00,48.8,44.7,29.85,ESE,113,0.0,0.0,86,0.00,,,0.00,WUHU216HW,2013-10-19 02:45:00,
2013-10-18 22:47:00,48.8,44.7,29.85,ESE,113,0.0,0.0,86,0.00,,,0.00,WUHU216HW,2013-10-19 02:47:00,
2013-10-18 22:48:00,48.8,44.7,29.85,ESE,113,0.0,0.0,86,0.00,,,0.00,WUHU216HW,2013-10-19 02:48:00,
2013-10-18 22:50:00,49.0,44.9,29.85,NW,315,0.0,0.0,86,0.00,,,0.00,WUHU216HW,2013-10-19 02:50:00,
2013-10-18 22:51:00,49.0,44.9,29.85,NW,315,0.0,0.0,86,0.00,,,0.00,WUHU216HW,2013-10-19 02:51:00,
2013-10-18 22:52:00,49.1,45.1,29.85,NW,315,0.0,0.0,86,0.00,,,0.00,WUHU216HW,2013-10-19 02:52:00,
2013-10-18 22:53:00,49.1,45.4,29.85,NW,315,0.0,0.0,87,0.00,,,0.00,WUHU216HW,2013-10-19 02:53:00,
2013-10-18 22:54:00,49.1,45.4,29.85,NW,315,0.0,0.0,87,0.00,,,0.00,WUHU216HW,2013-10-19 02:54:00,
2013-10-18 22:55:00,49.1,45.4,29.85,NW,315,0.0,0.0,87,0.00,,,0.00,WUHU216HW,2013-10-19 02:55:00,
2013-10-18 22:56:00,49.1,45.4,29.85,NW,315,0.0,0.0,87,0.00,,,0.00,WUHU216HW,2013-10-19 02:56:00,
2013-10-18 22:57:00,49.1,45.4,29.85,NW,315,0.0,0.0,87,0.00,,,0.00,WUHU216HW,2013-10-19 02:57:00,
2013-10-18 22:59:00,49.1,45.4,29.85,NW,315,0.0,0.0,87,0.00,,,0.00,WUHU216HW,2013-10-19 02:59:00,
2013-10-18 23:01:00,49.1,45.4,29.85,NW,315,0.0,0.0,87,0.00,,,0.00,WUHU216HW,2013-10-19 03:01:00,
2013-10-18 23:02:00,49.1,45.4,29.85,NW,315,0.0,0.0,87,0.00,,,0.00,WUHU216HW,2013-10-19 03:02:00,
2013-10-18 23:03:00,49.0,45.3,29.85,NW,315,0.0,0.0,87,0.00,,,0.00,WUHU216HW,2013-10-19 03:03:00,
2013-10-18 23:05:00,49.0,45.3,29.85,NW,315,0.0,0.0,87,0.00,,,0.00,WUHU216HW,2013-10-19 03:05:00,
2013-10-18 23:06:00,49.0,45.3,29.85,NW,315,0.0,0.0,87,0.00,,,0.00,WUHU216HW,2013-10-19 03:06:00,
2013-10-18 23:07:00,49.0,45.3,29.85,NW,315,0.0,0.0,87,0.00,,,0.00,WUHU216HW,2013-10-19 03:07:00,
2013-10-18 23:09:00,49.0,45.3,29.86,NW,315,0.0,0.0,87,0.00,,,0.00,WUHU216HW,2013-10-19 03:09:00,
2013-10-18 23:10:00,49.0,45.3,29.86,NW,315,0.0,0.0,87,0.00,,,0.00,WUHU216HW,2013-10-19 03:10:00,
2013-10-18 23:11:00,49.0,45.3,29.86,NW,315,0.0,0.0,87,0.00,,,0.00,WUHU216HW,2013-10-19 03:11:00,
2013-10-18 23:13:00,48.8,45.1,29.86,NW,315,0.0,0.0,87,0.00,,,0.00,WUHU216HW,2013-10-19 03:13:00,
2013-10-18 23:15:00,48.6,44.9,29.87,NW,315,0.0,0.0,87,0.00,,,0.00,WUHU216HW,2013-10-19 03:15:00,
2013-10-18 23:16:00,48.6,44.9,29.87,NW,315,0.0,0.0,87,0.00,,,0.00,WUHU216HW,2013-10-19 03:16:00,
2013-10-18 23:17:00,48.6,44.9,29.86,NW,315,0.0,0.0,87,0.00,,,0.00,WUHU216HW,2013-10-19 03:17:00,
2013-10-18 23:18:00,48.4,44.7,29.86,NW,315,0.2,0.2,87,0.00,,,0.00,WUHU216HW,2013-10-19 03:18:00,
2013-10-18 23:21:00,48.2,44.6,29.86,ESE,113,0.7,0.9,87,0.00,,,0.00,WUHU216HW,2013-10-19 03:21:00,
2013-10-18 23:23:00,48.2,44.6,29.87,ESE,113,0.4,0.9,87,0.00,,,0.00,WUHU216HW,2013-10-19 03:23:00,
2013-10-18 23:24:00,48.2,44.6,29.86,ESE,113,0.2,0.9,87,0.00,,,0.00,WUHU216HW,2013-10-19 03:24:00,
2013-10-18 23:25:00,48.2,44.6,29.86,ESE,113,0.2,0.9,87,0.00,,,0.00,WUHU216HW,2013-10-19 03:25:00,
2013-10-18 23:26:00,48.2,44.6,29.86,ESE,113,0.4,0.9,87,0.00,,,0.00,WUHU216HW,2013-10-19 03:26:00,
2013-10-18 23:27:00,48.1,44.4,29.86,ESE,113,0.3,0.9,87,0.00,,,0.00,WUHU216HW,2013-10-19 03:27:00,
2013-10-18 23:29:00,48.1,44.4,29.86,ESE,113,0.0,0.7,87,0.00,,,0.00,WUHU216HW,2013-10-19 03:29:00,
2013-10-18 23:30:00,48.1,44.4,29.86,ESE,113,0.0,0.7,87,0.00,,,0.00,WUHU216HW,2013-10-19 03:30:00,
2013-10-18 23:31:00,48.1,44.4,29.86,ESE,113,0.0,0.7,87,0.00,,,0.00,WUHU216HW,2013-10-19 03:31:00,
2013-10-18 23:32:00,48.1,44.7,29.86,East,90,0.4,0.4,88,0.00,,,0.00,WUHU216HW,2013-10-19 03:32:00,
2013-10-18 23:33:00,48.1,44.7,29.86,East,90,0.4,0.4,88,0.00,,,0.00,WUHU216HW,2013-10-19 03:33:00,
2013-10-18 23:35:00,48.2,44.9,29.85,East,90,0.2,0.4,88,0.00,,,0.00,WUHU216HW,2013-10-19 03:35:00,
2013-10-18 23:37:00,48.2,44.9,29.85,East,90,0.0,0.4,88,0.00,,,0.00,WUHU216HW,2013-10-19 03:37:00,
2013-10-18 23:39:00,48.2,44.9,29.85,East,90,0.0,0.4,88,0.00,,,0.00,WUHU216HW,2013-10-19 03:39:00,
2013-10-18 23:40:00,48.2,44.9,29.85,East,90,0.0,0.4,88,0.00,,,0.00,WUHU216HW,2013-10-19 03:40:00,
2013-10-18 23:42:00,48.2,44.9,29.85,East,90,0.0,0.4,88,0.00,,,0.00,WUHU216HW,2013-10-19 03:42:00,
2013-10-18 23:43:00,48.2,44.9,29.85,East,90,0.0,0.4,88,0.00,,,0.00,WUHU216HW,2013-10-19 03:43:00,
2013-10-18 23:45:00,48.2,44.9,29.85,East,90,0.0,0.0,88,0.00,,,0.00,WUHU216HW,2013-10-19 03:45:00,
2013-10-18 23:46:00,48.2,44.9,29.85,East,90,0.0,0.0,88,0.00,,,0.00,WUHU216HW,2013-10-19 03:46:00,
2013-10-18 23:48:00,48.2,44.9,29.85,East,90,0.0,0.0,88,0.00,,,0.00,WUHU216HW,2013-10-19 03:48:00,
2013-10-18 23:50:00,48.2,44.9,29.85,East,90,0.0,0.0,88,0.00,,,0.00,WUHU216HW,2013-10-19 03:50:00,
2013-10-18 23:51:00,48.2,44.9,29.85,East,90,0.0,0.0,88,0.00,,,0.00,WUHU216HW,2013-10-19 03:51:00,
2013-10-18 23:52:00,48.2,44.9,29.85,East,90,0.0,0.0,88,0.00,,,0.00,WUHU216HW,2013-10-19 03:52:00,
2013-10-18 23:54:00,48.2,44.9,29.85,East,90,0.0,0.0,88,0.00,,,0.00,WUHU216HW,2013-10-19 03:54:00,
2013-10-18 23:55:00,48.2,44.9,29.85,East,90,0.0,0.0,88,0.00,,,0.00,WUHU216HW,2013-10-19 03:55:00,
2013-10-18 23:57:00,48.2,44.9,29.86,East,90,0.4,0.4,88,0.00,,,0.00,WUHU216HW,2013-10-19 03:57:00,